GFSSGP_sfc_temp_057.txt.gz
Temp
69 69 69 68 61 54 50 54 58 58 59 62 62 62 61 60 60 57 70 72 73 74 76 77 75 76 76 76 75 75 76 77 77 76 76 76 75 75 75 75 75 75 76 76 76 75 74 74 73
68 72 67 60 53 49 51 55 56 59 60 59 61 61 61 58 64 66 68 72 74 74 76 76 73 75 75 75 75 75 76 76 76 76 76 75 75 75 75 75 75 75 75 75 75 75 74 73 73
70 69 65 54 47 49 50 55 58 59 57 61 59 61 60 59 65 68 70 72 74 74 75 75 73 75 75 75 75 75 76 76 76 76 75 75 75 74 74 75 75 75 75 75 74 74 73 72 72
68 67 60 54 51 54 56 58 58 57 60 61 60 57 62 65 66 68 69 72 73 73 74 73 73 75 75 75 75 75 76 76 76 76 76 75 74 74 74 74 74 74 74 74 74 73 72 71 71
63 60 53 50 51 55 56 59 57 57 60 60 61 56 58 65 67 67 69 72 72 72 74 74 73 73 74 75 75 75 75 76 75 75 75 74 74 74 74 73 73 74 74 73 73 72 71 70 70
60 58 50 48 50 55 58 58 60 60 60 59 58 56 59 65 65 66 69 71 73 73 73 74 70 71 73 73 74 74 74 75 75 75 74 74 74 74 74 73 73 73 73 73 72 71 70 69 68
58 53 50 48 49 53 58 58 58 59 58 60 60 56 60 63 64 64 66 68 69 72 72 73 74 72 68 70 71 72 73 73 73 74 73 73 72 72 72 72 72 72 72 71 71 70 69 68 67
55 53 48 47 50 53 58 58 60 61 60 60 61 60 60 62 62 62 64 65 66 67 70 71 72 73 73 73 67 68 70 71 71 71 69 68 68 68 68 67 70 71 70 69 69 68 68 67 66
57 51 47 50 50 55 55 58 57 59 58 58 59 60 61 60 60 61 61 62 63 63 64 68 70 71 72 72 69 66 67 68 68 68 65 65 71 71 70 66 68 69 68 68 67 66 65 64 63
54 49 52 54 54 55 56 58 58 59 57 57 58 58 57 57 58 60 60 61 61 61 62 64 66 66 69 70 69 70 71 72 72 71 70 70 70 70 69 63 64 65 66 66 65 63 61 60 61
51 51 53 55 56 57 57 55 58 57 55 60 60 59 55 55 57 59 60 62 62 62 61 61 62 63 65 67 69 68 68 68 69 69 69 68 68 68 67 66 63 64 60 63 62 62 61 59 60
51 52 54 57 56 56 56 56 56 56 61 58 60 59 54 54 56 58 59 59 59 60 60 59 60 61 62 65 66 68 67 68 67 67 67 65 64 65 65 65 62 61 62 61 60 60 59 58 57
51 53 54 55 54 54 56 55 56 56 59 56 56 55 54 55 56 55 57 57 57 58 58 59 58 60 61 62 65 65 68 66 67 68 66 65 64 64 64 63 61 60 60 60 58 57 57 55 55
52 53 53 54 54 54 54 53 53 57 54 56 54 55 54 54 55 54 54 56 54 55 56 57 57 58 60 61 64 64 66 65 64 64 65 65 64 63 61 60 58 58 58 57 57 55 53 52 53
52 49 52 51 53 53 54 52 54 56 53 55 54 53 52 53 53 56 58 55 55 54 54 54 55 57 58 60 63 63 63 62 61 60 63 63 63 62 60 58 57 56 55 53 53 51 52 52 52
48 47 44 50 51 52 53 47 55 53 53 56 54 52 51 53 54 54 54 54 54 53 53 53 55 56 57 58 60 59 60 60 58 59 59 61 61 61 59 56 55 54 53 53 51 50 51 50 50
43 41 40 48 50 49 49 47 52 50 49 52 52 51 50 51 52 53 53 53 53 53 52 52 53 54 55 55 57 56 57 57 56 57 57 57 58 58 58 56 53 53 51 51 50 51 51 48 47
41 39 40 42 47 45 45 46 52 51 49 51 51 51 50 51 55 57 53 52 52 51 51 51 52 53 53 53 53 52 52 52 53 53 53 54 54 55 54 52 52 51 49 47 50 49 50 48 47
43 41 41 43 47 46 45 46 49 53 48 48 51 52 52 52 59 55 53 52 49 49 49 50 50 51 52 52 50 50 51 50 49 49 50 50 51 51 52 49 50 49 50 50 49 48 46 44 46
42 40 41 44 45 46 44 45 51 50 54 55 57 56 55 57 53 51 51 49 49 50 49 49 50 51 52 54 51 52 50 48 49 47 48 48 48 49 48 48 47 49 47 47 48 47 44 45 43
40 40 40 43 42 42 40 40 44 49 49 52 52 57 56 57 59 55 48 49 49 48 48 49 49 50 52 53 47 47 47 46 45 46 45 46 47 47 46 46 47 47 49 47 47 46 45 42 40
38 44 43 41 40 35 40 33 41 46 49 49 53 53 55 57 56 53 49 49 48 49 49 50 49 50 50 49 49 49 47 45 46 47 46 44 45 44 44 44 46 46 47 46 45 46 45 43 41
42 43 42 39 37 35 35 34 40 41 45 49 56 57 56 55 53 53 49 51 51 49 47 49 48 49 50 49 50 50 47 46 46 45 43 42 42 42 42 42 44 43 44 45 45 43 42 44 42
44 42 39 35 35 29 36 38 42 41 47 51 53 56 55 53 51 50 49 47 47 46 46 47 47 47 48 49 50 50 49 43 43 42 41 41 40 39 40 39 41 41 42 42 42 42 42 42 41
41 40 31 28 25 30 33 34 49 47 50 51 56 59 53 51 50 49 46 44 43 43 44 46 46 45 46 49 49 49 47 46 45 43 42 39 38 38 38 39 39 40 40 40 40 40 39 40 40
39 41 32 24 23 29 31 30 40 47 49 49 50 50 47 48 49 48 46 44 42 42 43 45 46 45 45 46 46 46 46 47 46 46 44 42 41 40 38 38 39 38 38 38 39 39 38 38 38
39 36 44 36 17 24 33 37 46 46 47 47 48 47 46 47 47 47 45 43 41 42 43 45 46 45 45 46 45 45 45 45 45 45 43 42 42 39 37 38 38 37 37 37 38 37 36 37 36
43 45 35 31 23 18 31 32 40 44 49 50 49 49 49 47 47 45 43 41 41 42 43 44 45 45 45 46 46 45 45 44 44 43 41 39 38 38 36 37 37 36 36 35 36 35 34 35 34
38 37 36 37 32 25 22 35 41 48 50 49 50 49 49 49 47 46 43 41 40 40 41 43 43 43 42 44 44 42 42 42 42 41 40 38 37 37 36 36 35 35 35 35 35 34 34 34 33
34 37 40 32 27 26 27 40 44 46 49 47 48 48 48 46 47 44 42 39 38 39 39 41 42 40 42 43 43 42 42 41 40 40 38 37 37 37 35 35 35 34 34 34 34 33 33 33 32

GFSSGP_sfc_temp_060.txt.gz
Temp
81 86 91 88 74 73 64 65 71 68 69 73 73 72 72 71 69 65 78 81 83 82 83 80 75 76 76 75 75 76 76 76 76 76 76 76 76 76 75 75 75 76 76 77 76 74 74 73 73
86 85 89 84 70 63 67 69 67 72 72 73 71 71 71 68 72 73 76 80 83 83 83 83 73 75 75 75 75 76 76 76 76 76 76 75 75 75 75 75 75 75 76 76 74 74 73 72 72
83 84 83 77 70 64 67 69 72 69 70 71 70 71 72 69 73 77 80 81 83 83 84 82 73 75 75 75 75 75 76 76 76 76 76 75 75 75 75 75 75 75 75 75 74 73 72 72 71
85 86 81 72 66 68 68 72 73 69 69 70 72 69 71 74 76 79 80 82 82 82 83 75 74 75 75 75 75 75 76 76 76 76 75 75 74 74 74 74 74 74 74 74 73 72 71 71 71
86 83 72 67 65 67 70 72 74 71 72 72 71 68 70 74 76 77 78 81 82 82 82 80 73 74 74 75 75 75 75 76 76 75 75 74 74 74 74 74 74 73 73 73 72 71 71 70 70
80 79 69 64 66 68 70 72 73 73 72 70 70 71 71 76 75 77 80 82 84 81 81 81 71 71 72 74 74 74 74 75 75 74 74 74 74 74 73 73 73 73 73 72 71 70 70 69 69
76 74 68 66 65 66 70 73 72 73 72 72 74 70 72 73 77 77 80 81 83 83 80 80 80 75 68 70 71 72 73 74 74 74 73 73 72 72 72 72 72 72 72 71 70 69 69 68 67
77 76 64 66 66 66 71 71 73 74 73 70 74 72 71 76 75 76 78 79 80 81 80 81 81 80 80 78 67 69 70 71 71 71 69 68 68 68 68 68 70 70 70 69 69 68 67 67 65
73 71 66 66 64 69 69 70 70 71 72 70 72 72 71 77 73 74 74 75 76 76 79 81 80 81 81 80 75 67 67 68 68 68 65 66 76 75 74 67 68 69 68 68 67 66 65 63 62
75 69 68 70 71 70 70 72 72 70 70 70 71 71 69 70 72 72 73 73 74 75 76 79 80 80 80 79 79 78 77 77 77 76 75 77 76 75 74 66 64 66 66 66 65 63 63 66 70
67 69 68 68 69 70 70 68 73 71 68 76 74 75 69 70 71 73 75 76 75 77 76 76 78 76 78 77 73 73 75 77 76 76 76 75 74 72 73 69 68 68 65 69 68 68 69 67 68
67 66 67 67 67 66 67 70 68 71 78 74 78 78 72 69 70 72 74 76 76 75 75 74 75 74 75 71 74 72 70 70 73 75 72 69 67 68 69 72 68 65 67 68 68 66 65 64 64
66 66 66 66 65 67 65 68 70 69 78 71 69 68 71 72 72 73 75 76 74 72 74 73 73 74 73 74 72 69 74 71 71 69 68 68 67 66 66 65 64 62 65 65 65 61 61 61 62
66 65 66 66 67 66 64 67 66 74 76 72 69 72 73 72 72 72 70 71 71 72 72 73 70 72 74 73 74 75 73 76 73 72 71 70 68 66 65 63 61 61 62 63 62 57 56 57 60
64 63 66 66 65 66 65 62 64 75 66 71 72 74 73 71 72 70 71 71 72 71 71 70 69 70 71 72 74 74 74 74 74 67 70 70 68 65 64 65 59 57 58 57 55 55 54 56 59
62 63 60 63 62 64 64 62 70 67 68 70 73 75 72 72 70 72 73 73 72 71 69 68 66 67 69 71 72 72 73 70 70 69 65 66 65 65 64 64 60 56 58 56 55 53 53 58 58
59 59 56 60 62 61 62 63 69 64 63 68 73 74 73 72 72 72 72 71 71 71 69 67 66 67 67 68 70 69 66 70 69 66 64 65 63 63 62 60 58 59 61 58 55 53 56 56 56
57 55 55 58 60 58 60 60 69 70 63 68 72 73 72 71 72 75 72 70 70 70 69 68 66 66 66 66 67 65 60 63 66 65 62 60 62 62 59 56 54 56 60 56 53 53 57 56 54
59 57 57 60 59 57 60 62 66 70 69 67 69 72 73 73 77 76 73 70 67 67 66 65 64 65 65 63 62 61 55 55 57 58 57 57 57 57 56 55 52 52 53 57 54 53 54 53 54
56 56 57 59 55 56 59 58 65 67 67 71 72 73 74 75 76 74 71 68 66 65 64 64 64 64 64 65 64 64 60 55 58 55 54 54 54 54 54 53 54 51 53 54 53 54 52 52 54
55 54 56 55 54 55 54 57 63 67 65 66 69 72 74 75 75 77 69 67 66 65 64 63 63 64 63 64 63 57 52 51 51 51 50 49 51 49 50 52 50 52 54 55 55 55 54 49 52
53 57 55 52 52 50 53 50 61 66 66 65 70 72 73 72 73 73 73 66 65 65 65 64 63 63 63 63 59 58 53 51 54 53 50 49 49 48 46 45 47 50 54 55 56 56 56 54 49
54 53 53 51 51 47 51 46 58 56 60 65 69 71 74 74 73 71 69 67 68 64 63 62 62 61 61 61 61 60 58 58 55 52 48 47 47 47 46 46 48 49 52 57 55 54 55 54 53
52 51 50 49 49 42 53 49 56 64 63 66 68 71 72 73 70 68 68 64 64 63 60 60 60 59 60 59 60 59 58 58 56 50 47 46 47 45 45 44 46 48 50 54 54 53 53 54 54
52 52 44 40 37 41 45 44 55 63 64 64 68 71 70 67 68 67 65 61 60 58 57 58 58 57 59 58 59 59 59 56 56 55 52 48 47 47 43 44 43 44 47 53 54 52 52 52 51
49 53 45 35 36 46 38 41 55 61 64 61 64 66 66 63 65 66 66 63 59 56 56 56 56 56 58 57 58 58 59 57 58 56 56 53 51 48 46 43 44 45 46 52 52 51 51 50 50
48 43 55 45 32 37 49 55 62 59 60 62 61 64 64 64 64 64 65 62 59 56 55 55 55 55 56 56 57 57 57 56 55 53 55 52 50 46 42 42 43 43 43 49 49 48 45 47 47
52 55 43 44 33 33 47 48 51 58 64 65 61 63 65 65 65 65 63 60 57 56 55 55 55 54 55 55 56 54 54 54 51 50 50 49 48 46 41 41 41 42 42 47 48 45 45 44 44
47 46 46 47 43 38 38 49 65 63 65 61 63 60 63 63 62 63 61 58 56 54 53 54 54 53 52 52 54 53 52 51 50 50 51 48 46 41 40 40 40 40 40 45 45 44 43 42 41
54 52 51 42 36 41 41 46 58 62 62 58 60 59 61 61 61 60 59 56 54 52 52 52 53 52 52 52 53 51 52 51 49 48 50 47 44 41 39 39 38 39 39 43 44 41 41 40 39

GFSSGP_sfc_temp_063.txt.gz
Temp
82 93 94 89 75 75 69 68 77 72 73 79 80 77 76 77 72 65 83 85 86 83 83 77 75 76 75 75 76 76 76 76 76 76 76 76 76 75 76 75 76 76 76 76 75 74 74 73 73
93 91 90 87 71 66 69 75 70 76 77 79 77 76 76 72 78 76 79 84 86 85 85 83 73 75 75 75 75 75 76 76 76 76 76 76 76 75 75 75 76 76 75 75 75 74 73 72 72
88 91 84 78 73 67 68 74 77 76 77 77 75 77 77 73 79 80 85 85 86 85 85 82 73 75 75 75 75 75 75 76 76 76 75 75 75 75 75 75 75 75 75 74 74 73 72 72 72
89 89 86 72 69 73 73 77 79 74 74 76 77 74 77 80 81 85 85 86 86 85 86 74 74 75 75 75 75 75 75 76 76 75 75 75 75 75 74 74 74 74 74 73 73 72 72 72 71
90 86 73 69 70 73 76 79 79 75 76 77 76 74 74 78 82 83 84 85 85 85 85 80 73 74 74 75 75 75 75 76 75 75 75 74 74 74 74 74 73 73 73 72 72 72 71 71 70
81 83 70 67 71 74 76 79 79 78 78 77 74 75 75 81 80 82 84 85 87 85 84 81 71 72 72 74 74 74 75 75 75 74 74 74 74 73 73 73 73 72 72 72 71 71 70 69 69
77 75 70 71 70 72 75 79 77 77 77 76 79 74 77 77 82 83 84 87 87 84 83 81 80 75 68 71 71 72 73 73 73 73 73 72 72 72 72 72 72 72 71 71 70 70 69 68 69
82 79 71 72 70 69 77 77 80 79 77 79 81 75 75 80 82 82 85 86 86 81 81 81 80 80 79 77 67 69 71 71 71 71 68 68 68 68 68 68 70 71 70 70 69 68 67 67 67
81 73 68 71 70 74 77 74 77 79 77 76 78 78 78 84 80 80 80 81 82 79 82 83 79 80 79 79 74 67 67 68 68 67 65 66 74 74 73 66 68 69 69 68 67 66 65 64 64
76 71 72 77 78 75 76 76 78 74 76 75 76 78 76 79 77 76 76 77 78 78 81 80 82 82 81 81 77 77 76 75 75 75 73 74 73 72 72 65 64 66 66 66 66 66 65 67 70
76 71 76 75 76 75 75 74 78 74 73 79 78 79 75 75 76 76 77 78 78 80 81 82 81 82 82 79 78 78 76 77 74 74 75 73 70 72 70 68 68 67 64 67 67 68 70 69 69
70 73 74 72 71 71 72 76 73 74 78 81 85 85 78 75 75 77 78 80 80 80 80 81 83 82 81 80 79 79 77 75 74 73 74 73 72 69 69 70 70 68 68 69 68 66 66 66 66
71 72 71 71 70 71 70 71 73 76 81 80 77 76 78 77 77 79 81 81 81 79 80 79 80 80 79 78 78 78 77 75 76 76 75 74 68 67 68 69 68 65 66 67 66 65 64 63 64
71 71 71 71 71 71 68 72 69 77 82 82 77 76 79 78 79 79 78 79 80 80 79 80 78 78 79 78 79 77 78 78 75 74 73 70 68 67 66 64 63 64 65 65 63 61 58 60 61
69 67 70 71 71 70 69 66 68 78 75 76 78 78 80 80 80 79 79 78 79 79 79 78 77 77 77 77 78 78 79 78 78 76 75 70 68 67 65 62 60 61 59 59 58 58 59 58 60
67 67 63 71 68 68 67 63 77 77 78 74 78 80 80 80 79 80 81 79 80 79 76 77 75 74 74 75 76 76 77 78 78 77 74 72 68 68 64 62 60 61 57 56 55 57 56 56 58
65 62 63 66 68 67 65 65 76 72 71 73 77 79 80 81 81 80 80 79 79 79 77 75 73 71 72 73 75 76 75 74 76 76 72 71 70 67 65 63 60 58 56 54 56 58 58 55 57
61 60 63 62 65 63 64 64 72 76 73 72 76 79 80 79 80 82 80 79 79 79 77 75 73 71 71 71 72 73 72 67 72 71 68 67 66 65 63 61 58 58 56 57 58 56 56 55 55
64 62 61 67 65 60 63 65 70 75 76 75 76 76 78 80 84 83 82 79 76 75 74 74 72 70 71 69 67 68 65 63 63 65 64 64 64 63 62 58 56 56 53 54 56 56 53 52 55
62 60 60 66 63 58 63 63 69 72 73 75 76 77 79 81 82 83 81 79 74 73 72 72 71 70 70 70 69 69 68 65 62 60 60 60 58 60 58 57 55 54 52 51 53 53 51 51 53
60 59 60 60 60 61 58 59 66 74 75 75 76 78 78 80 81 83 80 77 74 71 70 70 70 70 70 69 69 68 67 62 57 55 55 54 55 56 55 55 53 53 54 51 52 52 51 49 51
55 66 61 59 55 52 60 51 64 70 72 75 76 76 78 79 80 80 81 77 73 71 71 70 70 69 69 68 67 64 59 57 59 59 55 52 52 52 52 53 54 54 54 51 52 53 53 52 48
58 58 58 56 53 53 54 49 60 69 67 70 75 77 79 80 81 80 78 76 76 71 69 69 69 68 68 67 67 64 60 63 63 60 54 53 50 50 48 47 49 51 53 52 51 52 53 54 51
59 56 55 54 53 44 54 53 57 65 69 74 76 77 78 79 78 77 76 75 73 71 68 66 67 66 67 66 65 63 61 63 61 57 55 52 49 46 46 46 47 48 49 50 51 51 53 53 54
57 54 45 43 40 42 53 51 58 67 71 72 73 74 77 75 74 74 71 67 67 66 64 64 64 64 65 64 64 63 63 63 61 57 55 51 47 44 44 45 46 48 49 52 52 50 51 53 53
51 55 46 36 40 46 44 43 57 69 72 69 69 71 71 72 71 70 72 70 66 63 62 62 62 62 64 63 62 62 63 63 63 61 57 52 50 48 45 45 46 47 48 49 50 48 48 51 51
52 46 58 46 39 39 49 57 66 68 64 67 70 71 71 72 71 68 69 71 68 63 61 61 61 61 62 62 62 61 62 61 61 60 60 56 53 51 48 46 45 45 45 47 48 46 45 48 47
54 59 44 46 34 33 46 50 53 61 66 69 69 69 71 71 69 70 69 68 65 64 62 61 61 60 60 61 61 60 60 60 61 59 57 57 56 51 47 44 43 43 43 43 44 42 42 45 45
49 48 49 51 47 38 38 48 66 66 67 66 67 66 67 68 67 67 69 66 63 61 60 60 59 59 58 59 58 58 58 58 58 57 56 53 51 47 44 43 41 41 42 42 43 42 41 42 41
58 53 52 42 40 45 42 45 67 67 66 65 64 67 67 66 67 66 65 64 61 59 58 58 58 57 57 58 57 56 57 55 55 54 53 51 48 45 44 43 42 42 40 40 41 40 41 40 39

GFSSGP_sfc_temp_069.txt.gz
Temp
70 73 67 69 58 53 47 53 57 60 59 61 64 65 60 59 59 52 69 73 74 72 73 73 74 75 75 75 75 75 76 76 76 76 76 76 76 76 76 76 75 76 76 75 75 75 75 75 75
68 77 69 61 52 45 48 55 56 58 63 64 67 64 61 57 66 65 66 75 75 74 73 73 73 75 75 75 75 75 75 76 76 76 76 76 76 76 76 76 76 75 75 75 75 75 75 75 75
71 75 63 56 49 47 49 55 57 61 65 64 61 64 61 60 66 67 72 76 76 74 74 73 73 74 75 75 75 75 75 75 76 76 76 76 76 76 75 76 75 75 74 75 74 74 74 74 74
70 67 63 54 50 53 56 57 61 61 63 66 65 60 63 66 71 72 77 77 75 74 75 71 73 74 75 75 75 75 76 76 75 75 75 75 75 75 74 74 74 74 74 74 73 73 73 73 74
67 61 54 50 51 57 60 61 63 60 60 60 62 59 59 67 73 74 76 77 75 74 73 72 72 74 74 74 75 75 76 76 75 75 75 74 74 74 73 73 73 73 73 73 73 73 72 72 73
62 60 50 47 52 59 59 64 64 61 61 61 60 58 58 68 70 72 74 73 73 71 72 73 69 71 72 73 74 74 75 75 74 74 74 74 74 73 73 73 72 72 72 72 72 72 71 71 71
58 54 49 48 52 55 60 64 62 62 61 61 67 56 57 62 69 72 73 74 73 72 71 70 71 71 69 70 71 72 73 73 73 73 73 72 72 72 72 72 72 72 71 71 71 71 71 71 70
61 57 51 49 53 53 60 61 62 63 58 64 64 57 54 63 69 71 72 72 73 70 70 69 69 69 70 69 67 69 70 70 70 70 68 67 68 68 68 68 70 71 70 70 70 69 70 70 69
62 52 48 53 55 56 61 58 63 62 64 61 63 61 63 68 69 68 67 67 71 72 71 69 68 68 68 68 67 66 67 67 67 66 64 64 64 64 65 65 68 69 69 69 68 68 68 66 66
56 50 53 59 57 58 62 60 62 59 58 56 57 60 64 66 66 64 64 64 65 66 70 72 69 68 68 71 66 67 67 67 66 66 65 65 63 63 64 62 65 66 66 67 68 68 65 61 58
56 53 58 59 60 62 62 58 62 60 54 61 62 61 63 62 62 63 63 64 65 65 69 71 71 70 70 70 67 67 66 66 65 64 64 63 62 62 59 58 57 58 59 62 61 59 58 58 57
53 59 62 61 61 61 58 62 58 60 61 64 65 64 63 61 62 63 63 64 64 65 67 69 73 71 72 71 69 68 67 66 65 65 64 64 63 61 58 58 56 56 56 55 55 54 55 56 56
54 57 61 60 59 57 60 56 58 59 64 63 64 64 64 63 62 62 64 65 65 65 67 69 70 73 72 69 69 69 67 67 66 67 67 66 64 60 59 58 59 60 57 55 53 53 54 53 54
56 58 58 59 58 58 56 55 55 62 63 61 62 60 60 61 62 61 62 66 65 67 68 67 68 71 72 70 70 68 68 68 67 66 67 67 65 62 60 59 61 61 61 60 58 55 52 51 52
58 52 54 57 58 55 57 54 56 60 61 62 60 59 60 60 61 64 67 67 69 68 70 68 68 68 67 68 67 68 68 68 67 66 66 68 66 63 62 61 60 60 59 58 56 54 53 52 51
51 51 44 54 57 55 55 47 59 60 59 61 59 57 59 62 62 64 65 67 64 65 67 69 72 69 66 66 67 67 67 67 67 67 67 66 65 64 62 61 60 58 58 57 55 53 52 51 51
46 40 44 49 57 55 51 47 57 60 58 56 57 59 59 60 61 63 65 67 67 66 67 66 69 68 66 64 65 64 65 66 66 66 66 66 65 64 63 61 60 58 56 55 55 52 51 50 48
41 41 47 46 53 52 48 48 54 58 58 59 58 58 59 60 63 66 66 66 68 66 65 68 67 68 66 64 62 61 61 63 65 65 65 65 65 64 63 60 58 56 54 53 53 52 51 50 49
49 45 43 47 53 50 49 48 53 57 55 54 54 55 57 60 66 64 66 66 62 64 62 65 64 63 65 63 61 60 63 62 60 62 64 65 65 64 63 60 57 56 53 53 54 52 50 48 48
48 44 43 48 51 48 48 49 53 54 58 60 61 56 57 57 61 64 62 61 61 65 65 64 65 63 65 67 66 65 60 56 59 57 59 65 65 64 63 60 57 56 54 52 52 53 49 48 48
46 44 43 46 47 47 43 42 47 54 54 58 58 59 59 61 61 61 62 59 62 62 61 65 65 63 65 64 58 55 54 53 54 54 55 58 61 63 62 60 57 56 56 52 52 52 51 46 47
44 48 50 48 42 37 44 33 42 53 57 56 59 57 58 58 59 60 62 58 57 63 64 66 63 61 63 60 59 60 60 58 60 61 58 53 56 59 60 58 57 56 56 54 52 53 51 50 45
47 50 48 45 40 36 36 33 41 46 48 54 57 58 58 58 58 60 61 61 58 59 57 56 56 58 59 60 60 59 59 58 48 49 50 51 50 54 54 56 56 55 56 55 53 52 52 51 48
52 48 47 42 39 30 39 39 36 46 51 51 54 56 57 58 57 58 57 58 56 53 52 52 54 55 56 59 58 57 57 49 48 47 49 49 48 50 52 52 54 55 55 54 53 52 52 49 50
47 43 31 29 26 29 37 34 43 51 55 55 55 54 54 57 57 59 58 58 54 52 51 51 53 53 52 54 56 52 53 51 51 49 49 48 50 50 51 51 52 53 53 54 52 51 50 49 48
43 43 32 25 25 29 35 33 45 52 56 55 55 57 54 52 53 54 55 55 54 52 51 50 51 51 51 51 52 53 52 54 54 51 51 50 49 50 51 50 51 51 52 52 51 50 49 49 47
42 39 45 35 21 25 34 40 50 53 54 59 56 54 54 55 54 55 54 53 53 51 50 50 50 50 51 51 51 50 53 50 52 50 51 51 48 48 45 48 48 49 49 49 50 48 47 47 46
45 48 36 33 23 21 30 34 41 47 50 53 54 53 53 52 53 53 52 52 51 50 50 49 49 49 50 50 50 51 51 50 49 49 48 48 47 46 43 43 46 47 47 48 48 47 47 46 45
40 38 40 41 33 26 23 34 47 50 52 50 52 54 53 54 53 54 53 52 52 51 50 49 48 48 48 48 49 48 48 48 48 49 48 48 45 45 42 42 43 44 45 46 46 46 45 44 43
43 42 42 32 30 31 30 39 49 50 50 52 52 55 54 54 55 53 53 51 51 51 49 48 48 47 47 48 47 47 47 47 47 49 48 46 45 43 42 41 41 42 43 43 44 42 42 42 40

GFSSGP_sfc_temp_072.txt.gz
Temp
69 70 67 67 57 51 45 49 52 56 55 59 62 63 59 57 57 50 66 70 71 70 72 72 74 75 75 75 75 75 75 76 76 76 76 76 76 76 76 76 75 75 75 76 76 76 75 75 75
66 74 67 58 50 44 46 49 54 56 60 62 63 59 59 54 62 61 64 71 72 72 72 72 73 75 75 75 75 75 75 75 75 76 76 76 76 76 76 75 75 75 75 76 76 75 75 75 74
69 72 62 54 46 45 48 52 56 58 60 60 59 62 59 58 61 63 68 72 72 71 72 72 72 74 75 74 75 75 75 75 75 75 76 76 75 75 75 75 74 74 75 75 75 74 74 74 73
68 65 60 52 47 50 55 55 56 58 58 63 60 57 59 64 66 69 73 72 71 71 72 70 73 74 75 74 75 75 75 75 75 75 75 76 75 74 74 74 74 74 74 74 74 73 74 74 73
64 59 52 48 49 53 51 56 57 57 57 58 60 56 55 64 69 72 72 73 70 70 70 71 72 73 74 74 74 75 76 75 75 75 75 75 74 73 73 73 73 73 73 73 73 73 73 73 73
60 58 49 44 47 55 55 60 60 55 56 57 57 55 57 65 68 71 73 71 72 70 70 71 69 71 72 73 74 74 75 74 74 74 74 74 73 73 73 72 72 72 72 72 72 72 73 72 71
58 52 47 45 48 51 58 61 59 58 55 57 62 52 54 60 68 69 70 70 70 71 70 70 70 70 68 70 71 72 73 73 73 73 73 72 72 72 72 71 72 72 72 72 71 71 71 71 70
58 56 47 45 51 52 58 59 61 59 59 61 62 53 52 62 67 69 69 70 69 69 69 68 68 69 69 69 67 68 69 70 71 70 68 67 68 68 68 68 70 71 71 71 70 70 69 69 68
59 52 47 49 52 54 58 58 58 60 60 58 59 58 61 67 66 65 64 66 67 68 68 68 67 68 68 68 66 66 66 67 66 66 64 63 62 63 64 64 68 69 70 69 69 68 67 66 65
55 48 52 55 54 53 58 57 61 58 56 53 54 57 59 63 63 65 62 62 64 64 65 67 67 67 67 70 66 66 66 65 64 63 62 61 61 61 62 61 65 66 67 68 69 66 64 60 57
54 51 55 56 57 60 59 55 58 57 52 59 59 59 59 60 61 65 62 63 64 65 66 66 67 67 67 68 66 66 65 64 63 62 61 61 60 59 58 57 58 58 60 60 59 57 56 56 55
53 56 59 59 58 58 58 57 55 57 60 63 62 61 61 62 62 64 64 62 62 62 66 67 67 67 67 68 66 67 67 64 63 62 62 60 58 57 56 56 56 56 55 55 54 54 54 54 54
54 55 58 57 57 55 57 53 55 56 61 60 61 60 61 63 63 64 65 63 63 64 65 66 68 67 68 66 67 68 68 66 64 63 63 61 60 58 57 55 55 55 54 54 52 52 52 52 52
56 55 55 56 55 55 54 51 53 59 57 58 58 58 60 60 60 58 59 62 63 66 66 67 67 69 69 67 67 67 69 68 66 64 65 63 62 61 58 56 55 55 59 58 56 54 50 49 50
56 51 52 53 54 53 53 50 53 56 57 56 57 56 56 58 58 60 64 65 66 66 68 66 68 68 68 68 66 67 67 68 67 65 67 66 64 61 60 58 57 55 58 57 55 53 51 49 52
50 49 43 51 54 53 52 47 54 56 51 57 54 53 55 57 59 61 63 64 63 64 64 67 69 67 67 68 67 67 66 66 68 67 65 66 65 63 61 60 60 59 58 57 55 53 51 51 51
45 40 41 48 54 51 49 47 55 54 55 55 54 55 55 56 58 59 60 64 65 65 66 66 67 67 66 66 67 66 66 66 66 67 66 65 65 64 62 61 61 58 57 56 55 52 52 49 47
41 39 43 42 50 48 44 47 53 55 51 55 54 55 55 56 60 63 62 63 65 65 66 67 67 67 67 65 65 64 65 65 66 67 66 66 65 63 62 62 60 58 56 54 52 52 51 50 48
47 44 42 45 50 48 47 46 51 55 52 51 53 53 54 55 64 60 61 61 59 60 61 64 64 67 66 61 62 62 62 63 63 65 66 67 66 64 63 61 59 57 55 54 52 48 47 47 47
45 43 42 45 48 47 45 47 51 52 54 55 55 54 54 54 57 61 60 57 57 64 62 63 64 66 65 68 67 66 64 59 63 61 63 65 65 65 64 61 58 56 55 52 52 52 47 46 48
44 43 42 44 44 43 40 41 45 51 50 54 55 55 55 56 57 58 58 57 55 57 59 63 63 64 66 67 60 54 54 53 54 54 60 63 64 64 63 62 59 56 56 52 52 51 50 46 46
43 48 46 44 41 36 41 32 40 48 53 53 56 51 54 54 55 57 58 57 55 58 59 62 63 62 63 63 62 62 62 60 61 64 59 55 59 63 63 61 59 57 56 54 52 53 51 50 44
46 47 45 43 38 34 35 33 39 42 48 52 55 53 55 55 52 55 58 58 58 55 54 55 56 58 61 61 62 61 61 62 54 51 53 52 54 57 60 60 58 57 56 55 54 52 51 51 49
50 46 43 38 37 30 36 37 36 43 48 49 54 55 55 55 55 55 55 56 55 52 50 50 52 53 55 58 58 58 59 55 48 48 50 49 50 55 54 55 57 57 56 55 54 53 51 51 51
45 41 30 28 26 28 34 32 39 48 51 51 53 53 52 51 52 52 53 53 52 52 50 49 50 51 51 53 54 53 56 52 51 50 51 47 48 49 53 53 53 55 56 56 55 52 51 51 50
42 41 31 25 23 28 33 32 43 48 53 54 52 52 49 51 51 51 50 50 51 51 51 49 49 50 49 50 50 50 52 53 53 50 50 50 51 51 49 50 53 53 54 54 54 52 51 51 49
41 37 44 34 18 24 33 38 49 52 49 51 51 52 53 53 52 52 53 52 51 50 51 50 49 49 49 49 48 49 49 50 51 49 50 50 49 48 46 49 49 51 53 53 54 51 49 49 48
44 47 36 32 22 20 29 32 39 46 48 50 50 51 53 54 54 54 52 52 52 50 50 49 49 49 49 48 48 48 48 49 48 48 48 49 48 46 45 47 49 49 50 51 51 51 49 48 47
40 38 38 39 32 25 21 33 44 46 48 47 48 50 50 51 52 52 53 52 50 49 49 49 48 48 48 48 47 47 46 47 47 48 49 49 47 45 45 44 46 47 47 48 48 49 48 46 46
40 40 40 31 29 28 29 33 48 47 47 47 47 50 50 50 51 51 50 50 49 50 49 48 48 47 48 48 47 47 47 46 46 48 49 46 47 43 45 43 43 44 45 46 46 46 47 44 44

GFSSGP_sfc_temp_075.txt.gz
Temp
67 68 65 65 56 49 43 48 51 53 53 57 59 60 58 55 56 49 63 67 68 69 71 73 74 76 75 75 75 75 75 76 76 77 76 76 76 76 75 75 75 75 77 76 76 76 75 74 74
66 71 65 56 49 43 44 48 53 55 58 58 60 57 56 52 59 59 62 68 70 70 71 71 73 75 75 75 75 75 75 75 76 76 76 76 75 76 75 75 75 75 76 76 75 76 75 74 74
69 68 62 52 44 44 45 50 53 55 58 57 55 58 57 56 58 62 65 69 70 69 71 71 72 74 75 74 74 75 75 75 75 76 76 76 75 75 74 74 75 75 76 75 75 75 74 73 73
67 64 58 50 45 49 50 54 53 55 56 59 56 54 57 62 62 66 69 70 68 68 70 70 73 74 74 74 74 75 75 75 75 76 75 75 75 74 74 74 74 74 75 74 75 75 74 73 73
61 58 50 46 47 52 49 54 54 54 53 54 56 53 53 61 66 68 68 70 67 67 68 70 72 73 74 74 75 75 75 75 75 75 75 75 74 73 73 73 73 73 73 73 73 73 73 72 72
58 56 47 43 46 54 53 54 55 53 53 55 55 53 55 62 64 67 69 67 69 68 68 69 69 70 72 73 74 74 74 74 74 74 74 74 73 73 73 73 73 73 73 73 73 73 72 71 71
56 51 46 44 46 49 56 58 52 55 55 55 59 51 54 58 64 66 67 66 68 68 68 68 69 69 68 70 71 72 73 73 73 73 73 72 72 72 72 71 72 72 72 72 72 71 71 70 69
56 54 47 46 49 50 55 57 58 56 56 57 58 51 51 61 65 65 66 66 66 67 68 67 67 68 68 68 67 68 69 70 71 70 68 67 68 69 68 67 70 72 72 71 71 70 69 68 67
56 50 47 49 51 53 56 54 55 56 57 56 57 57 57 65 64 63 63 64 66 67 68 68 68 68 67 67 65 65 66 67 66 65 64 62 62 62 63 64 68 70 70 70 69 69 67 65 64
54 49 53 55 54 53 57 54 58 55 53 52 53 55 57 62 62 62 63 63 65 66 67 69 68 69 67 68 65 65 65 64 63 62 61 60 60 60 61 61 65 67 67 68 68 66 63 59 55
52 53 55 55 56 56 58 53 55 55 51 58 59 57 57 59 60 62 62 63 64 67 67 67 67 68 68 67 66 64 63 62 61 60 60 59 59 58 58 58 58 59 60 58 58 57 55 55 54
52 55 57 58 57 58 56 55 53 54 58 58 61 60 58 60 61 62 61 60 61 62 65 66 66 66 68 68 67 67 65 62 61 60 60 58 56 56 56 56 56 56 55 54 53 53 53 53 54
51 54 56 55 55 54 56 52 53 54 59 57 58 58 58 60 62 64 64 61 61 61 63 65 66 66 66 66 68 67 67 64 62 60 60 59 57 56 55 55 55 54 54 53 52 52 52 52 52
54 55 54 54 54 53 52 50 51 53 55 53 55 56 56 58 60 57 59 60 60 63 63 65 65 66 66 66 67 68 68 67 62 61 61 59 59 57 56 55 54 54 53 53 52 51 50 49 50
55 51 50 52 53 51 53 49 51 54 52 53 54 53 54 56 56 58 63 63 63 64 65 64 65 66 65 65 65 68 69 68 65 62 62 61 60 58 58 57 56 53 55 54 54 51 51 48 50
49 46 44 50 52 51 51 46 53 53 51 53 52 51 52 55 56 57 59 61 61 62 62 64 66 65 65 65 65 66 68 68 67 65 63 62 61 61 60 59 58 57 57 56 54 52 51 51 51
43 39 40 48 52 49 47 46 53 52 52 53 51 53 54 54 55 57 59 59 60 61 62 62 64 64 64 65 65 65 66 67 68 66 65 63 64 62 61 60 60 58 56 55 54 52 52 50 48
39 37 40 41 48 47 43 47 51 54 51 52 52 52 52 53 58 60 60 61 61 59 61 64 64 65 64 65 65 64 64 66 67 67 66 65 64 63 61 61 60 58 57 54 53 51 49 46 45
44 42 41 44 48 46 45 44 50 53 49 50 51 51 52 53 59 58 59 57 56 57 58 60 61 64 64 63 62 63 63 65 65 66 66 66 65 64 61 61 60 58 56 55 54 49 48 45 46
44 41 40 44 47 46 44 46 49 50 52 52 53 53 52 52 54 55 55 54 54 60 59 61 63 64 64 66 66 65 64 65 67 66 66 66 65 65 63 62 59 57 55 53 52 51 47 45 47
42 41 41 43 43 42 40 41 43 48 48 52 52 51 52 53 54 54 54 53 53 52 55 60 62 65 65 67 62 54 55 53 57 59 63 64 65 65 63 63 60 57 57 53 52 51 50 45 45
41 47 46 43 39 35 38 33 40 45 48 50 52 49 51 51 52 53 54 53 52 53 52 55 58 59 62 63 61 62 63 61 60 63 61 63 64 64 64 63 61 58 57 55 53 53 51 50 43
44 46 43 41 37 34 34 33 40 41 45 49 50 50 50 50 50 52 53 53 51 50 49 49 53 56 58 60 63 61 62 63 57 55 55 55 59 61 63 62 60 58 56 56 53 52 51 51 49
47 44 41 36 35 29 34 34 36 41 44 46 48 49 49 50 51 52 52 51 51 49 48 48 50 52 55 57 57 58 60 57 51 50 53 52 55 58 56 58 59 59 57 56 54 53 51 51 52
43 40 30 29 25 27 32 31 38 43 47 46 47 50 49 49 49 50 50 51 51 51 49 49 49 50 51 53 54 54 56 55 53 51 52 49 49 52 56 55 54 57 57 57 55 53 52 51 50
41 40 31 24 22 28 33 31 41 46 49 48 49 49 49 49 48 49 49 49 49 50 50 49 49 49 48 49 51 51 52 52 52 50 50 51 51 52 52 54 56 55 56 56 55 53 52 51 50
40 36 41 31 16 23 31 35 47 46 46 47 49 49 49 49 50 50 50 49 48 48 49 48 48 48 48 48 47 48 48 49 50 49 49 51 49 48 48 49 51 55 55 55 55 54 52 51 50
43 46 35 30 21 19 28 30 38 40 42 45 46 47 48 50 51 52 51 50 49 48 48 48 48 47 47 47 46 47 47 47 48 48 48 48 48 46 45 45 47 47 49 51 52 53 53 51 50
39 37 37 38 32 25 21 31 41 43 44 45 45 47 48 49 49 50 50 50 50 50 50 49 48 47 47 47 46 46 46 46 46 47 47 47 46 45 45 45 45 46 46 48 49 50 50 49 49
39 40 39 32 28 27 29 32 45 45 44 45 44 46 47 47 47 47 47 47 47 47 47 47 47 46 46 46 46 46 46 45 45 45 46 45 45 44 44 42 43 46 47 47 47 47 48 47 46

GFSSGP_sfc_temp_078.txt.gz
Temp
67 67 65 64 55 48 41 46 49 51 51 55 58 56 55 53 54 49 60 65 67 67 69 71 74 76 76 75 75 75 76 76 77 76 76 76 76 75 75 75 76 76 77 77 76 76 75 74 74
66 68 64 55 49 41 43 45 51 53 55 57 59 56 55 50 57 58 61 66 69 68 70 71 73 75 75 75 75 75 75 76 76 76 76 76 75 75 75 75 76 76 76 75 76 76 74 74 74
66 66 61 51 42 43 43 48 51 53 55 55 53 55 55 53 56 60 63 67 68 68 69 70 72 74 74 74 74 75 75 75 76 76 76 75 74 75 75 75 75 76 75 75 75 75 74 74 73
65 64 57 50 43 46 47 50 53 54 54 56 54 52 55 60 61 63 66 68 67 67 69 70 73 74 74 74 74 74 75 75 75 75 75 75 74 75 74 74 75 75 74 75 75 74 74 73 73
61 57 49 44 44 48 48 51 54 52 51 52 53 51 52 59 64 65 65 68 66 66 68 69 72 73 74 74 74 74 75 75 75 75 75 75 74 73 73 74 74 74 75 74 74 73 72 72 71
57 55 46 42 43 51 50 52 54 52 51 52 52 50 54 60 62 63 66 65 67 66 67 69 69 70 72 73 74 74 74 74 74 75 75 74 73 73 73 73 73 74 74 74 73 72 72 71 70
55 50 45 42 44 47 54 55 52 53 51 53 58 50 52 56 63 64 64 64 65 66 67 68 68 68 68 70 71 71 72 73 73 73 73 72 72 72 72 72 72 73 73 73 72 71 70 70 69
54 52 43 41 46 48 55 56 55 54 54 54 56 52 49 59 63 63 63 63 64 65 66 66 67 67 67 67 66 68 69 70 70 70 68 67 68 68 68 67 70 72 72 71 71 70 69 68 67
54 49 44 47 48 50 53 54 53 54 55 53 57 55 55 61 62 62 61 62 62 65 66 67 68 66 66 66 65 65 66 67 66 65 64 62 61 62 63 64 68 71 71 71 70 70 67 65 64
53 47 51 53 51 52 55 53 57 54 51 51 51 53 54 60 61 61 61 61 63 64 67 69 69 68 66 67 64 64 64 63 63 62 61 60 59 59 61 61 65 67 68 70 69 66 63 59 55
50 51 53 53 54 58 57 52 53 53 49 57 57 56 56 57 59 61 61 63 66 68 68 68 69 69 68 65 64 63 62 61 61 60 59 58 58 57 58 58 58 59 59 59 59 57 54 54 54
52 52 55 56 56 56 57 56 51 53 56 55 58 57 56 58 59 60 60 60 65 67 67 68 68 68 68 68 67 66 63 60 59 59 59 57 56 56 56 56 56 56 55 54 53 53 53 53 54
51 52 54 54 55 54 55 51 52 53 56 55 55 56 57 59 60 60 61 60 61 64 66 67 67 68 68 68 67 67 66 62 60 59 58 57 56 55 55 55 55 55 54 53 52 52 52 52 52
52 53 51 53 52 52 52 50 50 53 52 51 54 54 55 57 59 57 59 59 59 62 63 65 66 67 69 68 67 67 67 65 60 59 59 58 57 55 55 54 54 54 53 52 51 51 50 49 50
53 50 48 49 50 49 50 49 50 52 51 51 52 49 52 55 55 58 61 61 61 62 62 62 64 65 67 67 68 68 67 67 64 60 59 59 57 56 55 54 54 54 54 52 54 53 52 51 51
48 46 42 47 50 49 50 47 50 51 48 51 52 50 51 53 56 57 58 59 60 60 61 62 64 64 64 66 67 68 68 67 66 64 60 59 59 57 58 58 58 57 56 55 53 52 51 51 51
43 38 38 43 49 48 46 44 50 50 51 51 51 51 52 53 54 54 56 57 58 59 60 61 63 63 64 64 65 67 68 68 67 65 63 60 60 59 60 60 59 57 56 54 54 51 51 50 49
39 37 38 38 44 45 41 46 50 53 50 52 50 50 50 51 55 56 56 57 57 57 59 61 62 64 64 64 64 65 65 67 68 66 64 64 62 60 61 60 59 57 56 54 53 52 50 49 48
43 40 39 42 46 45 43 44 49 51 49 50 51 49 50 51 54 55 56 55 54 54 56 58 60 62 63 62 63 63 63 64 65 66 65 64 64 62 61 60 59 57 56 55 54 50 46 46 45
44 41 39 43 46 44 42 45 49 49 51 50 52 49 50 49 51 54 53 49 52 53 54 56 59 61 62 64 64 64 67 66 67 66 65 65 64 64 62 60 59 57 56 55 53 50 44 44 47
40 41 39 40 40 41 40 42 43 47 47 49 49 47 48 49 49 51 52 51 50 49 50 53 56 59 61 64 60 54 56 57 62 63 64 64 65 64 63 62 61 58 57 55 53 52 51 46 43
39 46 44 42 38 35 38 34 41 43 46 47 47 46 46 47 49 49 50 50 49 49 49 51 53 55 57 60 59 60 61 61 63 65 65 64 64 64 63 62 62 59 58 56 54 54 53 52 44
43 45 43 39 36 33 35 34 41 40 42 46 47 47 47 47 47 48 49 50 49 47 46 47 50 52 55 57 60 59 60 61 58 56 59 63 62 63 63 62 62 60 58 58 56 53 52 53 50
44 43 40 35 34 29 33 33 36 39 41 42 45 46 46 46 47 48 48 49 48 47 47 47 49 50 52 54 56 57 58 57 53 52 54 55 59 61 61 60 61 61 59 57 56 54 53 52 53
42 40 30 28 25 26 30 31 37 42 44 44 43 45 45 45 47 48 48 48 48 48 47 47 47 48 49 51 52 53 54 54 54 52 52 50 53 53 58 57 57 59 59 58 57 54 53 52 51
39 40 31 24 22 27 31 30 38 41 43 47 45 44 45 47 47 47 47 47 47 47 47 47 47 47 46 47 48 49 50 51 52 51 50 52 52 53 54 57 57 57 57 57 57 55 52 51 50
39 36 40 29 15 23 30 33 40 41 44 44 45 47 47 47 47 47 47 47 46 47 46 45 45 46 46 46 46 46 46 47 48 49 49 49 49 49 49 50 54 56 56 55 55 54 52 51 50
41 44 34 30 19 18 26 30 33 37 40 41 44 44 46 46 47 47 47 46 46 45 45 47 45 44 44 45 45 45 45 45 45 45 46 46 47 46 45 45 46 47 51 54 54 54 54 51 51
39 36 35 37 32 23 20 30 40 42 42 42 42 45 44 45 44 44 44 44 45 45 46 45 46 45 45 45 44 44 44 44 44 44 45 45 45 45 44 44 44 45 45 46 49 51 52 51 51
37 39 38 31 27 26 28 31 45 44 43 43 42 44 42 43 42 43 43 43 43 43 43 43 44 44 44 44 44 43 44 43 43 43 44 44 44 43 43 43 42 43 44 45 45 47 48 48 48

GFSSGP_sfc_temp_084.txt.gz
Temp
81 86 90 88 73 71 61 63 69 68 69 73 74 72 72 72 68 64 75 78 81 81 82 80 75 76 75 75 75 76 76 77 77 76 76 76 76 77 77 77 76 76 77 77 76 76 76 75 74
87 85 88 81 68 62 63 67 66 71 72 74 73 72 72 69 72 67 73 77 81 82 82 81 73 75 75 75 75 75 76 76 76 76 76 76 76 76 77 76 76 76 76 76 76 75 74 74 74
84 85 83 73 66 62 62 67 71 69 71 72 71 73 72 69 72 74 77 79 81 81 81 79 73 74 75 75 75 75 75 76 76 76 76 76 76 76 76 76 76 76 76 76 76 76 75 74 74
86 86 78 68 62 65 66 70 72 70 71 72 73 70 73 74 74 77 79 80 81 80 80 74 73 74 74 74 75 75 75 76 76 76 76 75 75 75 75 75 75 75 75 75 75 74 74 73 73
85 80 67 63 63 66 69 71 74 72 72 73 73 69 70 73 77 78 79 80 80 80 80 78 72 73 74 74 75 75 75 75 75 75 75 75 75 75 75 75 75 75 75 75 74 74 73 73 72
75 76 65 61 63 66 68 72 73 73 72 71 72 72 71 75 76 77 80 81 82 80 79 79 70 71 72 73 74 74 74 74 74 74 74 74 74 74 74 75 74 74 74 74 73 73 73 72 71
70 68 64 64 64 65 68 72 73 73 72 72 76 70 72 74 77 78 80 81 81 81 79 78 79 74 68 70 71 72 73 73 73 73 73 72 72 72 73 73 74 74 73 72 71 71 71 71 70
75 72 62 64 65 64 70 71 73 74 72 73 74 72 70 76 76 78 79 79 80 79 79 77 79 79 78 77 67 68 70 70 70 70 68 67 68 69 69 69 72 74 73 71 70 70 70 70 69
72 68 63 63 65 68 69 70 70 73 72 71 73 74 74 76 76 75 75 76 77 77 78 77 77 79 79 79 73 66 66 66 66 67 64 66 76 75 73 67 70 72 71 70 70 69 68 67 66
72 66 66 71 72 71 70 72 72 71 71 71 72 72 72 74 74 73 73 73 74 74 75 74 75 78 78 78 77 78 76 77 77 76 75 76 75 75 74 68 66 68 68 69 68 66 63 65 74
67 68 68 68 70 73 71 70 73 72 68 74 74 74 71 72 74 74 75 76 75 76 76 72 73 75 78 78 77 77 77 77 76 75 74 75 74 73 75 74 74 74 67 72 70 68 72 71 73
67 66 68 66 67 68 70 72 70 71 73 72 75 77 73 71 73 75 75 76 76 76 77 75 73 73 75 77 77 77 76 75 75 74 73 73 73 72 73 74 74 72 74 72 71 71 70 70 71
67 66 66 66 66 68 68 67 70 70 73 71 70 70 72 73 74 76 77 77 76 75 77 77 74 73 73 73 75 74 75 75 75 74 73 74 73 72 73 73 73 73 73 72 70 70 70 69 69
66 66 65 66 65 64 66 65 66 68 69 70 69 71 74 73 74 74 74 75 75 76 77 78 74 72 73 72 74 74 72 74 74 74 74 72 73 73 72 72 72 72 72 72 71 70 69 69 69
65 63 64 64 64 63 65 62 65 69 67 69 71 72 71 72 73 73 75 75 75 76 77 75 73 72 71 71 72 72 73 72 72 74 73 72 72 72 72 72 71 71 71 68 67 69 69 69 69
62 64 58 61 62 61 64 62 66 66 68 70 69 71 70 71 72 75 76 76 77 77 75 76 72 71 71 71 72 72 73 73 72 71 72 72 71 72 71 71 70 66 64 65 67 66 62 63 63
58 57 56 56 60 60 62 62 63 66 66 69 71 71 70 72 72 73 74 74 76 76 76 74 73 70 70 70 71 71 71 73 72 70 67 67 70 71 71 71 66 63 62 60 61 60 61 61 60
53 54 52 57 58 58 58 63 65 66 65 69 70 70 70 70 72 72 73 73 75 75 76 76 75 72 69 69 69 68 69 71 71 70 68 68 66 67 69 71 67 63 62 61 59 59 57 58 62
59 58 56 54 56 57 57 60 64 66 65 68 68 68 68 68 68 68 67 69 70 72 73 73 74 74 71 66 65 65 64 66 67 68 68 69 67 66 64 65 69 65 60 61 60 59 56 54 59
58 56 52 53 54 55 54 58 64 61 61 60 62 64 63 64 65 64 65 65 65 69 69 71 72 73 73 70 68 68 67 67 68 68 67 67 66 65 63 63 63 63 62 64 63 59 58 59 61
53 56 51 54 52 53 53 58 58 58 59 59 59 59 60 61 63 64 63 63 64 63 64 67 69 71 73 73 70 66 64 64 65 65 65 66 67 66 63 63 63 61 60 59 58 57 56 54 55
50 55 54 51 54 50 51 52 54 55 55 57 58 59 60 61 62 62 62 62 61 61 63 64 65 67 70 72 70 66 64 63 67 68 67 67 66 65 64 63 63 62 61 59 59 58 57 55 51
52 54 54 51 50 51 50 52 55 54 53 54 56 56 58 59 61 60 60 60 60 61 61 64 64 65 65 68 70 69 67 70 70 71 70 70 69 66 65 63 63 61 61 61 61 59 56 56 54
52 52 51 50 50 43 49 49 54 54 54 53 55 56 58 58 59 60 59 61 60 61 61 62 62 62 64 66 66 67 66 65 64 65 66 67 67 66 65 64 62 62 61 60 60 59 57 56 55
52 54 42 41 40 41 41 42 54 54 56 58 56 57 57 59 59 59 58 58 58 58 59 59 61 59 62 62 62 62 61 60 60 60 59 59 60 61 62 61 59 60 60 60 60 59 57 56 55
51 54 44 34 34 39 37 40 51 53 55 58 58 56 56 57 57 56 57 57 56 56 57 58 58 57 59 60 59 60 61 62 63 61 61 62 62 63 63 62 61 60 60 60 59 58 57 56 54
49 46 50 38 26 38 46 48 52 51 52 54 55 56 55 55 55 55 55 56 56 55 55 56 57 56 57 57 58 58 58 58 58 58 59 59 59 58 58 59 60 61 61 60 59 57 56 55 54
51 53 45 45 32 33 41 43 51 45 49 53 52 54 53 53 54 54 55 54 54 55 55 56 56 54 55 56 56 55 55 56 57 57 55 56 57 57 56 57 57 57 58 58 59 57 57 56 55
46 47 45 49 44 37 36 45 56 52 54 53 55 54 53 53 53 53 53 53 54 54 55 55 55 53 53 54 54 54 53 54 54 54 53 53 54 54 54 54 54 54 55 56 55 56 56 55 54
47 49 50 44 35 38 38 47 49 58 58 56 53 52 53 53 52 52 52 53 53 52 52 52 52 50 50 51 52 51 52 52 52 51 51 50 50 50 50 50 51 51 52 52 52 51 52 52 51

GFSSGP_sfc_temp_087.txt.gz
Temp
80 93 96 90 74 73 65 66 75 70 72 77 79 77 75 76 71 63 81 83 85 82 82 79 75 76 76 76 76 76 75 76 76 76 76 77 77 77 77 77 76 76 77 77 77 76 75 75 74
95 93 92 85 70 64 65 73 69 74 76 79 77 77 76 70 77 74 76 83 85 84 83 80 73 75 75 75 75 75 76 76 76 76 76 76 77 76 76 76 76 76 76 76 76 75 75 74 74
90 92 83 76 70 66 65 72 74 74 77 77 75 79 78 72 77 78 82 84 85 84 84 78 73 74 75 75 75 75 75 76 76 76 76 76 77 76 76 75 76 76 76 76 76 75 74 74 74
89 89 84 70 66 69 71 75 77 74 75 77 78 73 78 80 79 83 83 85 84 83 79 73 73 74 74 75 75 75 75 76 76 76 76 76 76 76 75 75 75 75 75 76 75 75 74 73 73
88 83 70 67 67 70 74 78 78 75 77 77 78 73 73 77 82 83 83 84 83 82 78 79 72 73 74 74 75 75 75 75 76 75 75 75 75 75 75 75 75 75 75 74 74 74 73 73 72
79 80 67 63 67 70 74 77 78 77 78 77 76 76 74 80 80 82 84 84 85 81 81 78 69 71 72 73 74 74 74 74 74 74 74 74 74 74 75 74 74 74 74 73 74 73 72 72 71
75 72 68 70 68 69 72 78 76 76 76 76 80 74 75 77 81 83 84 85 85 82 77 80 78 73 69 70 71 72 73 73 73 73 73 72 72 72 72 72 73 73 73 73 72 72 72 71 70
78 75 66 70 67 66 74 76 79 78 76 80 81 74 72 79 81 83 84 84 84 81 76 78 80 79 78 76 67 68 70 70 70 69 68 68 68 69 70 69 72 73 73 71 70 70 70 70 69
78 69 63 66 69 70 75 74 77 79 77 78 78 79 82 80 81 80 80 80 80 78 77 78 79 81 81 79 72 66 66 67 66 67 65 66 76 76 73 67 70 72 71 70 70 69 68 67 66
70 67 68 76 77 73 74 77 75 75 75 75 75 77 80 79 78 77 76 76 77 77 76 77 78 80 81 81 77 78 76 77 78 76 75 78 77 76 75 68 66 68 68 70 68 67 65 64 73
74 69 73 73 75 79 74 75 79 76 72 78 76 75 76 77 77 77 78 79 78 80 79 77 76 78 80 80 79 79 78 78 78 77 76 77 76 74 75 73 73 73 67 73 71 68 71 73 74
69 72 74 71 70 74 72 77 74 77 76 79 81 81 77 76 77 78 78 80 80 80 80 78 76 75 80 79 79 78 78 78 77 76 76 75 74 74 75 75 75 73 73 72 72 72 72 72 72
71 71 71 71 70 74 74 73 74 75 78 78 77 78 78 77 79 80 81 82 81 79 80 79 78 76 77 77 78 77 76 77 77 76 75 76 75 73 74 74 74 74 74 73 72 72 70 70 71
72 71 70 71 70 69 70 70 71 74 75 75 74 76 78 78 79 80 80 80 80 80 80 81 79 77 75 73 74 75 76 77 77 77 76 75 75 74 74 73 73 73 74 74 73 71 70 70 71
71 62 67 69 69 67 70 66 68 73 73 73 73 77 78 79 80 79 80 80 80 80 81 80 80 76 74 72 72 73 73 72 71 74 76 75 74 75 74 74 73 73 73 72 71 71 71 70 71
66 68 60 66 67 66 66 64 72 72 73 74 76 78 76 76 78 80 81 80 82 81 80 81 79 74 72 72 72 72 72 71 71 71 72 74 74 74 73 73 73 73 70 68 67 69 69 68 69
63 59 60 58 66 66 66 66 68 71 72 74 76 76 76 77 77 80 81 81 81 81 81 79 79 72 71 71 72 71 71 71 71 70 72 71 72 73 73 72 73 71 66 63 64 65 64 63 64
57 59 60 61 62 62 63 65 67 69 69 73 75 76 75 75 77 79 79 79 80 80 81 80 79 75 70 70 70 70 69 70 70 71 71 70 69 69 69 71 71 69 65 64 61 60 61 62 61
67 61 59 64 60 61 62 65 70 71 69 71 73 74 74 73 74 73 73 74 75 77 78 78 78 78 71 67 65 65 65 67 67 68 69 70 68 66 65 65 66 68 64 64 62 62 60 60 60
63 61 60 56 58 59 62 61 69 67 68 67 68 71 70 70 70 68 69 69 71 72 74 76 77 78 76 68 68 68 67 67 68 68 68 68 68 66 64 64 63 63 61 61 62 60 57 55 57
60 59 57 59 54 58 58 60 62 62 63 64 64 65 66 67 68 67 67 68 68 68 71 73 75 76 77 75 69 66 64 64 65 66 67 67 67 66 64 63 63 63 62 60 61 60 57 54 56
54 61 60 54 55 53 56 54 60 60 60 61 62 65 65 65 66 66 65 65 64 65 67 69 72 73 75 76 74 66 64 64 66 68 67 66 67 66 65 64 63 62 62 60 60 61 59 56 54
57 61 59 57 56 54 53 53 60 58 56 57 60 60 62 63 64 62 62 62 63 64 65 67 68 69 70 72 73 71 67 68 68 66 66 65 66 66 65 64 63 62 62 61 60 59 58 57 56
58 56 56 56 54 45 55 54 59 55 59 58 58 60 60 62 61 61 62 63 62 63 64 65 65 66 68 69 70 70 68 65 61 61 60 61 62 64 63 62 62 62 62 61 61 60 59 57 56
59 55 44 42 41 42 46 46 59 59 62 61 58 59 60 62 63 62 61 61 61 61 62 63 63 63 65 65 65 65 64 64 64 64 64 63 64 65 66 65 64 63 62 60 59 58 58 57 56
54 57 46 35 37 44 40 42 54 59 62 63 62 61 60 60 60 60 60 59 59 59 60 61 61 60 62 62 62 62 64 64 63 62 61 61 61 61 61 61 62 63 63 63 60 58 57 57 56
54 49 55 41 32 40 47 53 55 54 56 58 58 58 58 59 59 58 59 59 58 58 58 60 59 59 59 60 60 59 60 60 59 59 60 59 59 58 58 59 59 60 61 60 60 59 57 56 55
55 59 45 49 33 34 47 49 53 47 51 55 55 57 58 58 58 58 58 58 58 58 58 59 59 57 58 58 58 57 57 58 58 57 55 55 56 56 56 56 56 57 57 58 58 56 57 56 56
49 49 51 54 48 40 39 47 59 55 57 56 57 59 57 57 57 57 57 57 57 58 58 57 57 56 55 56 56 55 55 56 56 55 54 53 54 53 53 52 52 53 53 54 54 54 54 53 53
55 55 54 46 38 44 40 49 54 63 62 60 59 58 58 57 57 57 56 56 56 55 55 54 54 52 53 54 54 53 54 54 53 52 52 51 50 51 51 50 50 50 51 51 50 50 51 50 50

GFSSGP_sfc_temp_093.txt.gz
Temp
71 72 67 69 57 53 48 53 59 61 60 63 67 64 59 58 58 51 72 73 74 72 74 73 74 75 75 75 75 75 76 76 77 77 77 77 77 76 76 76 76 77 77 77 77 77 75 75 75
69 76 71 62 52 45 47 55 56 60 63 67 68 64 61 56 65 66 66 75 75 74 73 72 73 75 75 75 74 75 76 76 77 77 77 77 76 76 76 76 75 76 77 77 76 76 75 75 74
72 75 64 57 50 47 48 54 58 62 66 64 63 66 62 59 66 69 74 76 75 73 73 72 72 74 75 75 74 75 75 76 76 77 77 76 76 76 76 76 76 75 76 76 76 76 75 74 74
72 69 64 54 48 56 57 56 61 61 65 68 63 58 63 70 73 73 76 75 72 71 71 71 73 74 74 74 74 75 75 76 76 77 77 76 75 75 75 75 75 75 75 75 75 74 74 73 73
68 62 53 50 53 57 57 62 63 61 62 61 64 57 59 67 73 74 72 73 69 69 69 71 72 73 74 74 74 75 75 75 75 75 75 75 75 74 74 75 74 74 74 74 74 73 72 72 72
63 61 50 46 50 57 60 63 65 61 63 62 60 58 58 69 70 71 72 71 71 69 69 70 68 70 71 73 73 74 74 74 74 74 74 74 74 74 73 74 74 74 74 73 73 72 71 71 71
59 54 49 46 50 54 59 65 62 63 61 61 65 55 60 65 71 72 71 72 71 70 67 67 68 68 68 69 70 71 72 72 73 73 72 71 71 72 71 72 74 74 73 72 72 71 71 70 70
61 56 49 48 51 53 61 63 65 64 60 65 67 54 55 65 71 72 72 72 69 68 67 65 66 67 66 67 66 68 69 69 69 69 68 67 68 69 68 66 71 73 72 71 70 70 69 69 69
62 52 49 52 54 55 62 59 63 63 64 63 64 63 67 71 71 69 69 66 67 68 67 66 66 66 66 66 64 65 66 66 66 65 64 64 64 65 65 65 69 70 70 70 70 70 67 67 66
58 50 54 60 60 58 61 62 63 61 59 58 59 66 69 70 67 67 66 64 63 64 67 67 66 67 67 71 65 64 66 64 64 64 64 64 63 64 64 62 65 66 67 69 69 67 65 63 60
57 55 59 61 63 65 62 60 63 60 55 60 59 63 65 66 64 65 65 65 65 65 73 72 68 68 67 66 64 63 63 63 63 64 63 63 63 62 61 60 61 61 61 61 62 61 60 60 61
55 61 63 62 63 64 62 63 62 61 60 66 65 66 65 65 66 65 65 65 65 66 67 72 72 72 69 66 66 64 64 63 62 63 64 62 60 60 60 60 60 60 59 59 59 58 60 61 62
57 59 63 62 61 62 65 60 60 60 62 64 65 66 63 64 64 65 67 68 68 66 68 68 72 70 72 71 69 68 69 66 64 64 65 63 61 60 60 60 60 60 60 59 59 59 60 60 61
60 61 61 62 59 60 60 56 61 58 61 62 63 61 62 64 66 65 66 66 68 69 68 68 68 68 67 70 73 72 72 70 68 65 64 65 62 61 61 60 61 60 60 60 59 59 58 58 59
60 55 54 57 59 58 60 55 56 61 62 61 61 59 62 65 66 66 67 66 69 70 69 68 67 67 66 68 72 70 70 69 69 68 68 65 64 62 61 60 60 60 60 60 59 58 58 57 58
56 52 46 54 58 56 56 50 58 60 59 58 59 58 61 64 66 66 68 68 68 68 68 69 70 67 66 68 70 69 69 69 68 67 67 68 67 64 61 60 60 60 59 58 57 57 56 55 58
46 40 45 48 56 54 53 50 57 59 59 56 56 58 59 61 63 65 67 68 67 68 68 67 67 66 64 65 68 67 67 67 67 67 66 67 67 67 64 61 60 60 58 57 57 56 57 57 58
40 42 46 45 54 52 50 49 55 58 57 56 55 56 58 60 62 62 64 65 67 67 67 66 67 66 64 64 66 66 65 66 66 66 66 67 66 66 65 65 64 62 60 57 58 57 57 57 56
49 49 48 47 52 52 51 52 54 57 55 53 53 55 58 57 57 59 60 60 62 63 64 65 65 65 64 62 64 63 63 64 64 65 66 66 65 65 63 63 63 62 60 59 59 58 55 55 55
49 47 43 45 50 49 49 51 53 55 55 56 57 55 55 55 56 57 57 57 58 59 60 63 65 64 64 63 63 65 64 64 65 64 65 65 64 64 62 62 61 61 60 60 58 57 55 55 55
48 47 44 46 46 45 45 43 49 52 54 54 54 55 55 55 54 53 53 51 51 53 54 60 63 63 64 64 64 63 62 62 62 63 63 64 64 63 62 62 61 60 60 59 58 57 56 55 54
46 53 49 45 45 38 43 35 43 47 49 51 51 51 51 51 52 52 50 49 49 52 53 56 60 61 64 66 64 63 61 60 62 63 63 64 64 63 62 61 61 60 59 59 58 58 58 56 55
49 51 48 46 43 38 37 36 41 45 43 47 48 50 50 49 49 49 49 52 51 51 50 53 56 58 60 65 65 64 61 62 60 60 60 60 61 60 60 60 60 60 59 59 59 58 57 57 56
53 50 48 44 40 32 38 38 37 40 49 44 47 48 49 48 48 49 50 52 50 49 50 50 52 52 56 57 61 61 59 58 56 56 55 53 56 54 53 53 52 53 55 55 56 56 55 56 56
49 43 31 31 28 29 33 33 41 46 50 50 47 47 47 47 47 47 47 47 47 47 48 50 52 49 51 53 53 53 52 51 49 48 48 47 47 47 48 49 49 49 50 50 50 50 50 50 49
42 44 31 26 24 30 33 33 43 46 47 49 50 48 47 46 46 46 46 45 46 47 46 48 49 48 49 50 49 50 50 49 48 47 46 45 45 45 46 46 47 47 48 48 47 46 46 47 46
43 39 45 33 19 25 31 36 44 45 45 46 46 46 44 45 45 45 46 45 45 45 45 46 47 47 47 47 49 48 47 46 45 44 44 43 44 46 44 44 44 45 45 45 44 43 43 43 43
45 50 38 34 21 22 29 31 37 39 43 44 45 44 44 45 45 45 45 45 45 45 45 45 45 45 45 46 47 45 44 44 43 43 42 42 42 43 42 42 42 42 43 43 42 41 42 41 41
42 40 41 41 34 27 23 32 43 46 46 45 46 47 45 45 45 45 45 45 44 44 44 43 44 45 44 45 44 43 42 42 42 42 41 41 41 41 41 40 40 40 40 40 40 39 40 39 39
42 45 44 36 32 32 31 35 46 45 50 49 48 48 47 47 45 45 44 43 43 42 43 43 43 43 43 43 42 42 42 41 40 39 39 39 38 39 39 39 38 38 39 38 38 37 38 37 37

GFSSGP_sfc_temp_096.txt.gz
Temp
69 70 65 65 57 51 45 51 56 57 58 62 63 62 56 56 56 50 67 72 71 70 72 72 74 76 75 75 75 75 76 77 77 77 77 77 76 76 77 77 77 76 76 77 77 76 76 75 74
67 73 67 58 50 44 46 51 55 58 63 62 63 60 57 54 62 62 63 72 72 71 71 71 72 74 75 74 75 75 76 76 76 77 76 76 76 76 76 76 76 76 76 77 76 76 75 75 74
71 70 62 54 47 44 47 52 56 59 63 62 60 62 58 57 63 65 69 73 73 70 71 71 72 74 75 74 75 75 75 76 76 77 76 76 76 76 76 75 75 76 76 76 76 75 74 74 73
68 65 61 52 47 52 56 57 59 61 61 64 61 56 60 66 69 70 74 74 70 68 69 70 73 74 74 74 75 75 75 76 76 77 75 75 76 75 75 75 75 75 75 75 74 74 73 73 73
64 59 51 48 50 54 53 58 59 58 58 58 59 54 56 65 72 72 70 70 67 67 68 70 72 73 74 74 75 75 75 75 75 76 75 75 74 75 74 74 74 74 74 74 73 73 72 72 72
59 58 47 45 47 55 57 59 61 57 56 57 57 56 55 66 68 68 69 67 68 67 68 69 67 70 72 73 74 74 74 74 74 75 74 74 73 73 74 74 74 74 73 73 72 72 71 71 71
57 52 47 46 50 51 60 62 60 59 58 57 61 52 61 65 67 68 67 67 68 67 66 66 67 67 68 69 70 71 72 72 73 72 72 71 71 71 72 72 73 73 72 72 71 70 70 70 70
62 57 47 48 50 53 59 62 61 61 58 64 63 53 58 64 68 68 68 65 64 64 64 64 65 65 66 67 66 67 69 69 69 69 68 67 68 68 67 67 71 72 71 70 70 69 69 69 69
63 51 49 52 52 56 57 59 59 60 62 59 60 59 64 67 68 66 66 63 63 64 63 63 63 64 65 65 63 64 65 66 66 65 64 63 62 63 64 65 68 70 70 70 69 68 67 66 65
58 50 54 60 57 58 59 61 61 59 55 54 56 61 68 66 65 63 63 61 61 61 62 63 63 63 64 68 64 63 64 63 63 63 62 62 62 62 63 62 64 66 67 68 68 67 65 62 59
58 54 59 61 59 61 61 59 58 58 52 57 56 61 65 64 62 63 63 63 63 63 64 63 63 63 64 64 62 62 61 61 61 62 62 61 61 60 59 59 59 59 60 60 61 60 59 59 59
54 61 61 62 60 61 60 62 58 57 58 62 63 65 65 64 62 62 62 63 63 64 66 66 65 64 63 63 62 62 61 61 60 61 62 60 58 58 58 58 58 58 58 58 58 57 58 59 60
55 56 59 59 62 61 63 59 59 57 55 62 63 64 64 65 63 63 64 65 65 65 66 69 70 68 65 64 63 62 62 62 62 62 62 61 59 58 59 58 58 58 58 58 57 57 58 58 59
58 58 56 58 58 59 59 57 59 58 55 59 62 61 62 63 62 62 62 63 64 66 65 67 68 70 70 69 66 66 68 67 65 63 62 62 60 59 59 58 59 58 58 58 58 57 57 57 57
56 51 52 53 56 56 60 54 54 57 57 58 58 58 60 62 63 64 65 65 65 67 67 67 67 66 65 65 71 70 70 68 67 67 66 63 62 60 60 59 58 59 59 58 57 57 56 56 56
54 49 44 51 55 53 55 49 56 57 56 56 55 55 58 61 64 65 66 66 67 67 66 67 69 65 64 65 67 70 69 68 67 67 67 67 65 63 60 58 58 59 58 57 56 56 56 57 57
44 40 41 46 55 52 52 49 55 56 57 55 54 55 57 59 60 63 65 65 66 67 67 66 65 64 64 64 65 69 68 67 67 67 66 66 66 66 64 60 59 59 57 57 57 57 58 57 57
39 40 42 42 51 50 49 49 52 56 55 54 54 53 55 57 60 62 63 64 66 66 67 66 66 65 63 63 63 66 65 65 66 66 66 66 65 65 65 64 63 62 60 58 58 57 55 57 54
49 48 46 45 50 49 49 50 53 54 52 52 53 51 53 56 55 56 59 60 61 61 62 65 64 64 63 62 61 63 63 64 64 65 65 65 65 64 63 62 62 62 60 60 59 58 56 55 56
49 47 44 44 48 48 46 50 50 52 53 53 54 51 53 52 53 56 55 54 58 59 60 61 64 63 64 64 62 62 64 64 65 64 65 65 64 64 63 62 61 61 60 60 59 57 55 55 55
45 44 42 46 44 44 43 44 47 52 51 52 54 53 53 53 53 52 53 50 52 54 56 59 61 63 65 64 63 62 62 63 63 63 63 64 65 64 62 62 61 60 60 58 58 58 56 55 55
42 50 49 45 42 38 43 36 41 46 50 51 52 50 52 52 52 49 48 46 49 51 52 56 59 62 62 66 65 63 61 60 62 63 62 60 61 60 61 61 60 60 59 58 58 58 57 56 54
47 50 47 43 41 40 36 36 41 40 42 48 49 49 50 50 49 48 48 49 48 49 50 52 56 61 62 64 65 63 62 61 59 59 58 57 55 55 56 56 56 57 57 57 55 54 52 54 54
51 49 45 41 40 32 38 38 38 38 46 52 46 48 48 46 46 47 48 49 48 47 48 49 52 53 58 61 64 63 60 58 56 55 53 52 53 51 51 49 49 49 49 49 48 49 49 48 49
49 46 32 31 31 30 33 33 43 45 48 49 53 46 44 45 44 45 45 45 45 45 46 48 50 48 51 53 55 56 53 50 50 47 47 45 45 44 45 45 45 45 45 46 46 45 45 45 44
43 47 31 25 23 28 33 32 42 46 47 49 49 47 44 43 45 44 44 44 45 45 45 45 46 46 48 50 51 52 49 48 47 46 44 43 43 42 43 43 43 43 44 43 43 42 42 42 41
45 41 44 32 18 27 31 35 46 43 42 43 43 45 43 43 43 43 43 43 43 43 43 44 44 44 46 47 47 46 46 45 44 43 42 41 41 43 41 41 41 42 42 42 41 40 40 40 39
46 49 38 33 23 20 28 30 37 39 44 42 42 44 43 43 42 42 42 42 43 43 42 43 44 43 44 45 46 45 43 43 41 41 40 40 40 40 40 39 39 39 39 39 39 38 39 38 38
42 41 39 39 33 27 22 31 41 47 49 44 45 45 44 43 43 42 42 42 42 41 42 41 43 43 43 43 43 42 41 40 40 39 38 38 38 38 38 38 38 37 37 37 37 36 37 36 35
42 44 44 37 32 29 29 34 43 44 46 46 44 45 44 44 43 42 42 41 40 40 41 41 41 42 42 42 42 41 40 39 38 37 36 37 36 36 36 36 36 36 36 35 35 35 35 34 34

GFSSGP_sfc_temp_102.txt.gz
Temp
70 66 63 64 55 49 44 49 51 53 52 55 57 57 56 54 55 49 62 66 68 68 71 72 74 75 75 75 75 75 76 76 76 76 76 77 77 77 78 77 76 76 77 76 76 75 75 74 74
66 68 64 55 48 42 45 48 53 55 56 56 58 56 55 51 57 63 63 67 68 69 70 71 73 75 75 75 75 75 76 76 76 76 76 77 77 77 77 76 75 76 76 76 75 75 74 74 73
66 67 61 51 43 43 45 50 54 55 57 56 55 57 55 54 63 65 65 67 68 68 69 70 72 74 74 74 75 75 75 75 76 76 76 76 75 76 76 75 76 76 75 75 75 74 73 73 73
65 64 59 51 43 48 49 52 54 55 56 59 57 53 56 61 62 64 67 68 67 67 68 70 73 74 74 74 75 75 75 75 75 76 76 76 75 75 74 74 74 74 74 74 74 73 72 72 72
62 57 49 45 46 49 51 54 55 54 54 54 55 51 52 62 65 67 66 67 66 65 67 69 72 73 74 74 74 75 75 75 74 75 75 75 74 74 74 74 73 73 73 73 73 72 72 72 71
60 54 46 42 45 51 51 55 56 53 53 54 55 53 54 61 64 65 67 65 65 66 67 68 68 70 72 73 73 74 74 74 74 74 74 74 74 74 73 73 73 73 72 72 72 71 71 71 70
58 51 44 42 44 48 54 58 54 53 53 55 59 51 55 60 62 64 64 64 65 65 65 65 67 68 68 69 70 71 72 72 72 72 71 71 71 72 72 72 72 72 71 71 71 70 70 70 69
57 52 43 43 47 49 55 56 56 55 52 56 58 50 55 60 63 63 64 63 63 63 63 64 65 66 66 66 66 67 69 69 69 68 67 66 67 67 67 67 70 71 70 70 69 69 69 69 68
62 49 44 49 51 52 54 55 53 54 55 55 56 56 59 62 63 63 63 62 61 62 62 62 64 64 64 64 63 64 65 66 65 64 62 61 61 62 64 65 68 69 69 69 69 68 66 64 63
58 49 52 57 56 52 55 56 57 55 52 51 52 57 61 63 62 61 60 60 60 59 60 61 63 62 63 65 62 62 62 61 61 60 60 60 60 60 62 61 63 65 65 67 68 67 63 60 57
57 52 56 58 60 58 56 55 54 54 49 56 56 55 60 62 61 61 59 60 58 58 60 60 61 62 62 61 60 60 59 59 59 59 59 59 59 58 58 57 57 57 58 57 58 57 57 57 57
54 59 58 59 58 57 55 56 54 55 56 59 60 59 60 61 61 62 62 58 58 58 59 60 61 61 61 61 60 59 59 58 58 58 59 58 57 56 56 56 56 56 56 56 56 56 56 57 57
53 57 58 59 60 56 58 55 53 54 53 55 59 60 60 61 61 61 61 60 59 58 59 60 60 61 61 60 60 59 59 58 59 59 59 58 57 56 56 56 56 56 56 56 56 56 56 56 56
57 57 56 58 57 57 57 51 52 52 53 55 58 57 59 60 60 58 59 59 60 60 60 61 61 61 61 60 60 60 60 60 59 59 59 59 57 56 57 57 57 56 56 56 56 56 55 55 55
57 52 54 56 57 55 56 50 53 52 54 54 55 56 56 58 58 59 61 61 61 62 62 61 62 61 61 60 61 60 61 61 60 62 63 61 59 58 57 57 56 57 57 57 56 56 55 54 55
52 51 43 49 53 54 55 47 53 52 53 52 52 53 55 56 58 60 61 62 62 62 62 63 65 62 61 61 61 62 62 62 65 65 64 64 63 62 58 57 57 57 56 56 55 58 58 55 56
47 44 41 48 51 50 51 48 52 51 52 51 51 52 54 54 56 58 60 61 62 63 63 62 62 62 61 61 61 62 66 66 66 65 64 64 64 64 63 61 60 58 56 56 57 58 58 57 57
41 42 45 45 49 47 46 49 49 49 50 51 51 52 52 54 57 58 59 60 62 62 63 64 64 63 62 61 61 62 65 65 65 65 65 65 64 64 63 63 62 61 59 59 58 57 56 57 57
50 43 44 47 51 50 48 50 54 50 46 48 48 49 51 53 56 57 58 59 59 61 61 62 62 62 62 59 61 62 62 63 63 64 65 65 65 64 63 62 62 61 60 59 59 58 57 56 56
45 44 45 47 49 48 47 49 48 48 49 49 51 48 51 50 53 55 55 56 56 60 61 62 63 63 63 64 61 61 62 64 65 64 64 65 65 64 63 62 61 61 60 60 59 58 56 55 56
42 41 43 45 44 44 43 46 45 48 47 49 50 50 50 52 53 52 53 54 55 57 59 61 63 63 63 63 60 62 63 63 63 64 64 61 62 62 62 62 61 60 60 58 58 57 56 54 55
40 49 48 44 45 39 42 34 42 44 48 47 50 48 50 50 51 52 52 51 51 54 54 59 62 63 63 62 62 63 62 61 62 61 57 55 57 57 57 58 58 58 57 56 55 55 53 55 50
45 50 47 45 42 39 37 34 43 38 43 45 48 49 52 52 52 54 52 51 50 51 52 52 57 60 61 62 63 62 62 61 58 56 54 53 53 53 53 53 53 52 52 51 50 46 46 46 48
50 46 44 42 39 31 40 36 36 42 43 47 51 51 54 50 49 50 49 49 49 48 49 50 52 58 59 61 62 63 62 58 56 53 52 51 50 50 49 49 48 45 45 44 44 43 42 42 41
50 43 31 31 27 31 33 32 46 45 46 50 56 56 54 47 47 47 48 46 47 47 47 48 50 53 60 60 61 63 60 58 56 53 50 48 47 46 46 44 42 41 42 41 41 40 39 38 37
44 43 30 23 24 32 32 32 41 48 48 49 49 49 48 45 46 46 47 46 46 47 46 47 48 50 56 60 60 59 59 57 54 52 50 48 46 44 41 40 40 40 40 39 39 38 37 36 35
42 40 42 32 19 25 31 36 44 45 47 45 46 45 46 46 46 47 44 45 45 45 45 45 46 49 51 54 54 53 52 51 49 47 46 45 41 41 39 38 38 38 38 38 38 36 35 35 34
41 47 35 35 22 22 28 29 38 40 48 49 46 46 46 45 43 43 43 43 43 43 43 43 43 47 48 50 51 50 49 48 46 45 41 42 39 38 37 36 36 36 36 36 36 34 34 33 33
37 36 38 40 34 26 23 33 40 49 51 53 52 51 48 44 44 44 42 41 41 41 41 41 41 44 46 45 46 46 45 45 44 41 39 38 37 36 36 36 35 35 34 34 34 33 33 32 31
43 41 42 34 30 28 29 36 43 45 46 47 48 47 44 43 42 42 41 39 39 40 39 40 39 40 44 45 45 44 43 43 42 38 36 36 35 35 34 34 34 34 33 33 32 31 31 30 30

GFSSGP_sfc_temp_105.txt.gz
Temp
71 70 70 69 59 55 51 54 59 58 60 60 62 62 62 59 60 56 67 70 72 72 75 76 75 76 75 75 75 75 76 76 77 77 77 77 77 78 78 77 76 77 76 76 76 75 75 74 73
70 73 68 60 53 48 51 57 57 60 60 60 62 62 60 56 63 63 66 70 72 73 74 75 73 75 75 75 75 75 76 76 76 77 77 77 77 77 77 76 76 76 75 76 76 75 74 73 73
72 70 64 54 48 49 51 56 59 60 59 62 60 62 60 57 64 66 69 70 72 72 74 74 72 74 75 74 74 75 75 76 76 77 76 77 76 76 76 76 75 75 75 76 75 74 73 73 73
69 66 61 54 50 55 56 59 59 58 61 63 61 57 62 66 67 69 70 71 71 71 73 72 73 74 74 74 75 75 75 76 76 76 76 76 75 75 74 74 75 75 74 74 73 73 73 72 72
64 60 53 50 52 55 57 60 58 59 60 60 61 55 58 65 68 69 69 71 70 70 72 74 72 73 74 74 75 75 75 75 75 75 75 75 75 74 74 74 74 73 73 73 73 72 72 71 71
61 58 49 48 50 56 57 59 61 60 59 58 58 57 59 65 66 67 69 69 70 69 70 73 69 70 72 73 73 74 74 74 74 74 74 74 74 74 73 73 73 73 72 72 72 71 71 71 70
57 54 50 49 50 53 58 60 59 59 58 59 62 55 59 62 66 67 67 68 69 69 69 70 72 70 68 69 70 71 72 72 72 72 72 72 72 72 72 72 72 72 72 71 71 71 70 70 69
57 55 50 50 52 53 58 59 60 61 59 61 63 54 57 64 64 66 66 66 67 67 68 69 70 71 71 71 66 67 68 69 69 67 66 66 67 68 67 67 70 71 70 70 70 69 69 68 68
63 52 49 53 53 56 57 59 59 60 58 59 61 60 63 64 64 64 63 63 64 65 66 69 68 69 69 69 66 65 65 65 65 64 62 64 68 69 69 65 67 69 69 69 69 67 66 64 63
59 51 54 59 59 57 57 58 58 59 57 57 58 59 62 63 63 62 61 61 62 62 64 67 66 67 68 68 67 67 67 68 67 66 66 66 67 67 66 62 62 64 65 67 67 66 63 63 67
58 55 58 59 61 60 58 57 58 56 53 58 58 57 61 62 62 62 62 63 62 62 64 67 65 67 67 66 66 66 66 66 66 65 65 65 65 65 66 66 65 66 61 66 66 66 66 65 66
56 59 59 60 59 60 57 58 56 57 61 61 62 62 62 61 61 62 61 61 60 62 62 65 66 65 66 66 65 65 65 64 65 65 65 65 64 64 64 65 65 65 65 65 65 65 64 65 65
55 57 60 59 58 59 58 57 58 56 58 59 59 61 61 62 62 64 64 62 61 61 62 63 64 65 65 65 65 64 65 65 65 65 65 65 64 64 64 64 65 65 65 65 65 65 65 64 64
57 57 57 59 58 58 57 55 55 59 56 56 57 58 61 62 63 63 62 61 61 61 62 63 64 64 64 65 64 65 65 65 65 65 65 64 65 64 64 64 65 65 65 65 65 65 64 64 64
56 53 56 55 57 56 59 54 56 58 56 54 55 57 59 62 63 62 62 62 63 63 63 62 63 64 64 64 65 65 65 65 65 66 66 65 65 64 65 65 65 65 65 64 64 64 63 64 64
52 53 46 53 54 55 54 50 57 54 56 53 54 54 57 59 60 62 63 64 64 64 63 63 65 63 64 64 65 65 66 66 67 67 67 65 64 63 63 65 65 65 64 64 63 63 63 63 62
48 42 45 49 54 52 52 50 56 53 54 53 52 54 56 57 58 60 62 64 64 64 64 64 64 63 64 64 64 65 66 66 68 67 65 65 65 65 64 63 63 62 63 63 61 60 61 64 62
39 42 44 44 51 49 48 50 55 52 52 54 52 52 54 56 59 60 61 63 64 64 65 65 65 65 64 64 64 64 66 66 66 66 65 66 65 65 64 64 63 63 63 60 61 60 61 61 62
49 46 45 47 52 48 47 49 57 53 50 50 51 52 53 54 60 59 60 61 62 63 64 65 64 64 63 63 62 63 63 64 64 65 65 66 65 64 64 63 63 62 61 62 61 60 59 60 61
48 45 44 47 49 49 47 48 54 51 51 52 53 51 53 53 55 57 58 59 60 63 63 64 64 64 64 66 65 66 66 65 66 65 65 65 65 65 64 65 63 62 61 61 60 60 58 57 59
43 45 44 45 45 47 45 46 49 50 49 50 51 53 52 55 56 55 55 57 60 60 61 63 65 65 66 66 64 63 63 63 63 64 64 62 64 64 63 63 62 61 61 60 59 59 58 55 56
40 47 47 46 44 36 45 35 45 48 50 48 51 49 54 54 53 56 56 55 57 60 62 63 64 65 65 65 65 65 64 62 63 63 59 57 59 59 60 60 60 59 58 57 56 57 56 57 53
43 48 45 44 41 37 37 38 43 44 44 49 50 51 53 55 56 56 56 57 57 55 57 60 62 63 64 64 66 64 64 65 60 57 55 54 54 55 55 55 55 54 54 52 53 52 52 53 51
47 44 41 40 40 30 37 39 36 48 48 50 52 54 56 55 53 53 52 52 53 52 53 53 57 61 63 63 65 64 63 60 57 55 53 52 52 51 51 50 50 50 50 50 49 48 48 47 47
45 37 29 28 26 26 33 35 46 47 49 54 56 57 57 56 51 51 51 50 53 51 51 51 52 57 61 62 63 63 63 61 59 56 53 50 49 48 48 48 47 47 47 47 47 45 45 44 43
41 40 31 23 24 27 31 33 40 48 54 51 52 53 51 51 49 50 53 52 51 50 50 50 51 53 58 60 61 63 62 61 59 56 53 51 50 47 46 45 45 45 45 44 44 43 42 42 41
40 34 42 34 18 24 31 36 46 45 48 48 49 49 51 51 49 52 50 49 50 49 49 49 49 50 53 59 60 61 60 58 55 53 52 49 47 45 44 44 43 43 43 43 42 41 39 40 39
42 47 35 32 24 20 29 30 38 42 48 51 50 49 53 50 48 47 46 46 46 47 47 47 47 49 50 55 55 55 55 54 52 50 47 45 44 43 42 41 41 41 41 41 41 39 39 38 38
38 37 35 37 32 25 21 32 40 47 50 50 53 51 50 49 48 45 44 44 45 45 44 44 44 46 47 49 50 49 47 48 48 47 45 44 43 42 41 40 39 39 38 39 38 37 37 36 36
40 38 39 34 28 31 28 31 45 45 47 48 50 50 49 46 47 44 44 44 42 42 41 42 42 43 46 46 47 46 46 45 44 43 42 42 41 40 39 38 38 37 37 37 37 37 36 35 34

GFSSGP_sfc_temp_108.txt.gz
Temp
80 84 88 86 72 71 63 64 71 68 69 71 73 72 72 70 68 64 75 78 81 81 81 80 75 76 76 75 75 75 76 77 77 77 77 77 77 77 77 76 75 76 76 76 76 75 74 73 73
85 84 87 79 67 61 65 68 66 70 70 73 72 71 70 67 67 67 73 79 82 81 82 81 73 75 75 75 75 75 76 77 77 77 77 77 77 77 77 76 75 76 76 75 75 75 74 73 72
82 84 81 73 67 62 64 68 71 69 70 72 70 71 70 65 68 71 78 80 81 81 82 78 73 74 75 75 75 75 75 76 76 77 77 76 77 76 75 76 75 75 76 75 75 74 73 72 72
84 84 77 68 62 66 67 71 72 68 69 71 72 67 70 73 70 74 79 80 81 81 80 74 73 74 75 74 75 75 75 76 76 76 76 76 75 75 75 75 74 75 74 74 74 73 73 72 71
84 81 68 63 63 66 69 70 73 70 71 70 71 65 65 70 75 76 77 80 79 79 80 78 72 73 74 74 74 75 75 75 75 75 75 75 74 74 74 74 74 73 73 73 73 72 72 71 71
76 76 64 60 63 66 69 71 72 72 71 69 70 69 65 71 69 75 79 79 79 78 79 78 69 71 72 73 73 73 74 74 74 74 74 74 74 73 73 73 73 73 72 72 72 71 71 70 70
72 70 64 63 63 64 68 71 71 72 70 69 73 67 65 65 70 77 78 78 77 76 79 78 78 73 68 69 70 71 72 72 72 73 73 72 72 72 72 72 72 72 72 71 71 70 70 70 69
74 73 61 64 64 64 69 70 71 72 69 71 73 67 63 67 70 73 72 74 72 73 77 78 78 79 78 77 66 67 68 68 68 68 67 67 67 68 68 68 70 71 70 70 69 69 68 68 67
73 63 61 63 63 67 69 69 69 70 69 68 70 71 73 70 69 69 67 67 68 70 74 77 77 78 78 78 71 66 65 65 65 65 64 68 76 75 74 65 67 69 69 69 68 67 66 65 64
71 63 64 68 68 67 68 69 70 70 67 68 68 67 72 66 66 67 67 66 66 66 70 74 76 77 77 76 76 76 74 76 75 75 75 76 75 74 72 65 62 64 65 67 67 65 64 68 76
68 64 68 66 69 68 67 66 72 71 67 74 70 67 64 64 65 67 70 70 70 68 69 72 76 77 77 76 76 76 76 75 74 74 74 74 74 74 75 74 74 74 65 75 73 74 75 72 75
64 69 69 66 66 67 66 67 68 71 76 72 76 72 64 63 65 68 69 71 72 66 67 71 76 75 76 77 76 76 75 74 74 74 73 74 74 73 74 75 74 73 75 73 74 75 73 73 73
63 64 66 63 66 67 65 66 68 69 73 71 73 69 64 64 67 71 71 72 71 70 67 68 71 76 75 75 75 75 75 75 75 74 73 75 74 73 74 74 75 75 75 75 75 74 74 73 73
64 65 63 64 65 66 64 66 65 73 73 69 69 68 65 66 68 67 71 70 69 70 73 68 68 74 75 74 73 74 75 75 75 75 74 73 75 74 75 74 74 75 75 75 75 74 73 73 73
63 60 64 62 62 63 66 62 63 73 68 69 68 68 65 67 68 66 72 71 71 72 74 72 69 70 73 74 74 74 74 74 74 74 74 74 74 74 74 75 74 75 75 72 73 74 73 73 73
58 60 52 65 61 59 66 57 68 70 68 69 70 69 63 65 66 68 72 73 74 75 73 73 71 71 72 74 74 75 75 75 75 75 75 73 70 71 73 74 74 75 74 74 74 72 67 73 73
52 48 53 58 63 62 63 59 64 65 65 70 70 69 66 67 64 68 73 74 75 75 74 73 72 71 71 72 73 74 74 75 75 76 75 72 69 69 69 70 70 67 71 71 69 66 65 66 71
42 48 52 54 59 59 58 59 67 65 62 66 70 69 68 68 66 70 72 74 75 75 75 74 72 72 72 72 72 73 73 74 76 76 70 70 69 68 68 67 67 66 67 67 64 63 64 66 70
53 53 53 57 58 58 59 60 65 70 62 64 66 68 68 68 72 73 72 73 74 74 73 73 73 73 71 70 68 69 68 69 69 68 69 69 68 67 66 66 66 68 66 65 64 63 64 68 69
54 51 53 57 58 57 59 57 64 67 64 66 68 68 68 69 69 69 70 72 71 73 73 73 73 73 72 72 71 72 72 71 71 69 68 69 69 68 66 67 67 67 65 64 63 62 62 63 66
47 47 52 52 54 56 56 55 60 65 63 65 65 69 69 68 68 68 68 70 71 71 72 72 73 73 73 73 73 72 71 68 67 66 68 67 70 67 66 66 68 66 66 64 62 62 63 59 62
41 51 51 51 48 43 55 41 58 64 64 61 64 65 66 67 69 70 69 68 70 71 73 72 73 73 73 73 71 69 68 67 69 70 69 65 65 66 65 64 64 63 62 61 60 62 65 63 60
46 52 49 46 47 40 46 41 54 59 58 63 64 66 66 68 68 68 66 67 71 70 71 71 72 72 72 73 72 71 69 71 73 66 62 60 59 60 60 60 60 59 58 57 58 59 60 62 59
52 43 42 39 37 32 43 42 50 58 59 65 67 67 68 68 67 68 69 68 67 67 67 69 70 71 72 71 71 71 69 69 67 64 63 58 56 55 55 56 55 55 56 57 58 57 57 56 55
46 43 31 30 30 37 44 43 51 63 63 66 68 69 69 69 67 66 65 64 65 64 62 65 68 68 71 70 70 70 70 70 67 66 65 59 56 52 52 53 51 52 55 56 55 54 53 53 52
41 43 36 29 31 40 39 40 51 61 61 66 65 68 67 68 67 65 64 65 66 63 64 64 64 66 69 69 68 69 70 70 69 68 65 61 56 53 52 53 51 52 55 54 53 51 50 50 49
41 37 48 37 29 35 45 50 57 58 62 61 62 63 65 67 64 62 63 64 64 63 63 63 62 64 66 67 66 65 65 66 66 66 63 59 55 50 49 51 50 52 51 51 51 49 47 48 46
48 50 37 38 29 31 44 43 48 55 58 63 63 64 67 66 63 62 60 60 59 61 62 62 61 62 64 65 64 62 62 63 62 62 58 54 52 48 49 51 51 50 50 50 49 46 46 45 44
44 43 42 44 40 35 35 46 59 60 62 61 62 63 63 63 64 64 62 59 57 57 59 59 57 59 60 60 64 61 57 57 56 54 52 51 51 47 48 50 49 48 48 48 47 45 44 44 42
51 47 44 39 32 40 36 42 56 59 59 58 60 60 61 60 60 59 57 56 55 54 56 55 55 55 57 58 61 58 55 50 50 49 48 47 46 47 46 48 47 47 46 46 45 43 43 42 41

GFSSGP_sfc_temp_111.txt.gz
Temp
80 92 91 87 72 72 65 67 76 72 73 76 79 77 75 73 68 60 79 83 84 81 78 80 75 76 76 75 75 75 76 77 77 77 77 77 77 77 76 76 75 76 76 76 75 74 74 73 73
90 90 88 83 68 63 67 72 69 75 76 78 76 76 75 68 72 69 75 83 84 81 82 81 73 75 75 75 75 76 76 76 77 77 77 77 77 76 76 76 75 75 75 76 75 74 73 73 72
83 89 81 75 69 63 65 72 75 74 76 76 74 78 76 69 71 74 82 81 80 81 82 78 73 75 75 75 75 75 76 76 77 77 77 76 76 76 75 75 75 75 75 76 75 74 73 72 72
85 86 83 69 65 70 71 74 77 73 74 77 78 71 75 78 72 75 83 81 81 79 81 73 73 74 75 75 75 75 76 76 76 76 76 76 75 75 74 75 74 74 74 75 74 73 72 72 71
85 82 69 66 67 70 75 76 78 73 76 76 76 71 69 74 76 79 82 82 79 77 79 78 72 73 74 75 75 75 75 75 76 75 75 75 74 74 74 74 74 73 74 74 73 72 71 71 70
78 79 65 63 68 71 75 76 77 76 76 75 74 73 69 73 75 77 81 81 79 75 77 78 69 71 72 73 73 74 74 74 74 74 74 74 74 73 73 73 73 73 73 72 72 71 71 70 70
72 71 64 68 68 68 73 77 75 75 75 74 79 72 70 68 74 78 80 80 79 77 75 77 78 73 68 70 70 71 72 72 73 73 72 71 72 72 72 72 72 72 72 71 71 70 70 69 69
77 75 65 68 67 67 74 75 77 76 73 78 79 71 68 69 72 77 78 76 76 79 76 77 77 79 78 76 66 67 68 68 68 69 68 67 68 68 69 68 70 71 71 70 69 69 68 68 67
79 68 64 65 67 70 74 72 75 77 73 75 75 76 77 73 73 73 71 71 70 74 79 77 76 79 79 77 70 66 65 66 65 66 65 66 76 76 73 65 68 69 69 69 68 68 67 67 66
71 66 66 73 73 71 72 73 75 72 73 72 71 74 76 69 69 68 69 68 69 69 75 75 75 78 80 79 75 76 73 76 76 76 76 78 77 75 72 65 64 65 66 67 67 67 67 66 77
71 65 73 71 73 74 71 71 76 73 72 77 74 72 71 66 68 72 73 72 72 73 71 73 77 78 79 78 78 77 77 76 76 76 76 76 75 74 75 73 72 72 64 75 72 73 75 74 75
61 73 74 72 70 71 71 72 71 73 77 77 82 79 70 64 66 73 74 75 74 72 70 72 74 77 79 79 78 78 76 76 75 76 76 75 75 74 75 75 74 74 75 74 74 74 73 74 75
63 71 71 71 70 71 71 70 70 73 79 78 80 75 68 65 67 74 77 77 77 72 70 70 73 76 78 77 78 77 77 76 76 75 75 76 75 74 75 74 75 75 75 75 74 74 74 74 74
70 70 69 69 69 69 69 70 69 76 81 76 76 74 70 68 67 74 75 75 75 75 72 70 70 74 78 77 76 76 77 77 76 76 75 75 76 75 75 74 74 75 75 75 75 74 73 74 74
66 61 63 65 68 69 69 65 66 77 75 75 74 76 73 69 71 75 76 75 76 75 76 70 70 69 77 77 76 77 76 76 75 76 76 75 75 75 75 75 74 75 75 73 73 74 74 74 75
60 62 54 64 65 67 67 57 72 78 74 73 76 76 73 72 73 76 76 78 77 76 75 75 72 70 75 76 76 77 77 75 75 76 75 75 75 75 74 73 73 75 74 74 73 73 71 69 69
55 52 54 59 68 66 63 60 71 73 73 73 76 76 74 73 74 75 76 78 78 78 77 76 74 73 74 75 76 76 76 76 76 76 76 75 74 74 73 74 72 73 72 72 70 66 66 67 71
44 49 54 57 63 62 61 60 70 70 70 71 76 77 75 73 73 73 75 77 79 79 78 77 76 75 74 75 75 75 75 75 77 76 75 76 75 72 71 70 69 68 68 65 64 63 65 67 70
57 51 55 61 65 59 60 61 66 72 71 69 72 75 75 74 77 75 74 77 77 78 77 77 75 75 74 72 71 71 71 73 74 75 75 74 73 71 69 68 68 66 67 66 65 65 65 69 69
55 54 54 60 60 58 61 61 66 69 71 72 72 72 74 75 75 76 75 75 75 76 76 76 76 76 75 75 73 73 73 73 73 72 72 72 70 70 69 67 68 68 65 65 64 62 63 65 67
52 52 55 54 57 59 57 55 60 67 70 72 73 74 75 74 75 75 74 74 75 74 75 76 76 76 76 76 74 73 73 72 70 70 70 70 72 71 69 68 68 67 66 66 65 62 62 63 62
45 53 54 52 50 46 58 45 60 67 68 68 70 71 73 74 74 76 74 72 72 73 76 76 76 76 76 76 74 70 69 66 70 71 71 71 72 71 69 68 67 66 66 63 61 61 63 63 61
48 56 52 49 46 45 51 46 55 63 62 67 71 71 72 75 74 73 74 72 73 73 73 75 75 75 75 75 74 72 69 71 73 73 72 70 69 68 64 64 63 62 60 59 58 58 62 63 61
54 46 45 45 43 35 48 48 51 58 63 67 71 74 74 75 75 75 75 74 72 72 72 73 72 73 75 74 74 72 70 70 71 70 68 65 64 61 60 59 59 58 58 56 58 60 60 58 57
48 47 34 32 32 34 49 45 52 62 67 69 69 73 76 76 75 75 73 72 71 70 71 70 71 71 74 74 71 72 72 72 71 69 67 65 62 59 58 57 56 55 56 56 57 56 55 54 53
43 44 37 32 34 42 43 41 52 65 67 65 71 72 73 74 76 75 74 72 71 70 70 70 69 70 71 72 72 72 72 72 71 70 68 67 64 62 60 56 54 54 56 55 56 53 51 50 49
42 37 50 40 33 37 47 52 61 63 65 67 68 69 70 71 72 73 73 73 71 70 68 68 68 69 71 72 72 71 72 72 70 68 69 68 65 59 56 53 52 54 54 54 53 49 47 47 47
50 52 39 40 32 32 45 49 52 57 63 68 67 68 70 72 70 69 69 69 70 70 69 68 69 68 68 70 71 70 70 69 70 67 65 65 60 54 53 51 52 51 52 52 51 48 47 45 44
45 43 48 49 45 37 37 48 63 64 65 65 66 65 67 68 68 68 68 68 67 66 65 66 66 66 66 67 68 67 65 65 65 62 60 60 55 52 50 50 51 50 51 50 48 46 45 44 43
52 47 48 42 35 42 42 44 63 65 65 64 63 64 66 66 66 65 65 64 63 62 62 62 64 63 63 65 65 64 61 56 58 55 53 51 50 50 49 49 48 49 48 47 46 44 44 43 41

GFSSGP_sfc_temp_114.txt.gz
Temp
78 85 83 75 61 61 57 61 68 67 67 69 74 71 66 65 63 55 75 80 78 75 75 75 74 75 75 75 75 75 76 76 77 77 77 77 76 76 76 76 76 76 76 76 75 74 74 73 73
78 84 77 70 57 54 58 65 65 68 70 73 72 71 68 60 67 68 70 76 79 76 78 75 73 75 75 75 75 75 76 76 77 77 77 76 76 76 76 76 75 76 76 75 74 74 73 72 72
79 84 68 63 59 55 57 64 66 69 72 71 67 72 69 63 68 69 76 77 79 78 76 74 73 74 75 75 75 75 76 76 76 77 77 76 76 75 75 75 75 75 76 75 74 73 73 72 72
77 74 72 59 58 63 64 68 69 68 68 73 72 63 67 72 68 72 78 79 77 77 74 72 73 74 75 74 75 75 76 76 76 76 76 75 75 75 74 74 74 74 75 74 73 73 72 71 71
76 71 60 57 60 65 67 70 69 68 68 69 69 64 61 68 73 77 77 79 75 75 73 73 72 73 74 74 75 75 75 76 75 75 75 74 74 74 74 74 73 74 73 73 72 72 71 71 70
67 70 56 54 61 66 67 68 68 70 71 68 66 66 60 71 72 75 78 75 74 74 73 73 68 70 72 73 73 73 74 74 74 74 74 74 74 74 74 73 73 73 73 72 72 71 71 70 70
63 61 56 59 62 63 68 70 65 68 68 67 71 63 62 65 73 75 76 76 74 74 72 71 71 68 68 69 70 70 71 73 73 72 72 72 71 72 72 72 72 72 72 71 70 70 70 69 69
67 65 59 61 59 60 68 68 70 69 65 70 71 62 57 67 73 75 74 74 72 72 73 73 70 71 70 68 65 66 67 69 69 68 67 67 68 68 68 67 70 71 70 70 69 69 69 69 68
72 58 56 61 62 62 69 65 67 69 67 66 68 66 68 69 71 71 68 69 68 70 71 72 71 71 70 68 64 64 65 66 66 66 65 65 66 67 66 64 68 69 69 69 68 68 68 67 66
62 57 61 68 67 64 68 66 67 64 66 63 64 68 67 68 70 67 65 65 63 66 69 72 71 74 71 73 67 66 66 66 67 67 65 67 66 66 65 62 64 66 66 68 68 68 67 65 64
64 58 68 69 70 71 68 64 67 64 62 67 64 64 64 67 67 67 67 65 65 66 67 70 71 73 70 70 67 65 65 65 66 67 68 67 65 62 62 60 61 60 61 62 64 64 64 66 65
58 68 69 67 67 67 67 67 64 64 62 69 72 69 64 64 65 67 67 67 67 66 66 67 70 72 70 69 68 66 65 65 65 66 68 65 63 63 64 63 64 63 63 64 64 63 65 66 67
61 64 69 68 66 65 67 65 63 63 68 71 72 70 62 64 66 69 72 71 69 66 66 66 67 70 72 69 67 67 66 65 65 66 67 66 64 63 64 64 64 64 65 64 64 64 65 65 66
64 65 65 65 65 64 64 64 62 66 68 69 69 66 63 63 67 66 72 72 70 68 66 67 67 70 73 68 67 66 66 66 65 65 66 68 66 65 64 64 64 64 65 65 64 63 63 63 65
63 58 60 61 62 62 64 59 60 68 68 67 67 65 64 63 68 66 72 70 71 69 68 67 66 68 68 69 68 67 67 67 65 66 67 67 67 66 65 64 64 68 65 65 64 64 63 63 67
55 56 49 59 61 61 61 51 64 70 66 65 66 65 64 64 65 67 71 71 73 70 68 68 69 66 68 68 67 68 67 66 66 66 66 67 68 67 65 65 67 66 65 63 63 61 61 65 66
48 46 50 54 63 60 57 50 63 68 66 63 64 66 65 65 65 68 70 70 73 71 70 67 67 66 65 67 67 67 67 66 67 67 66 66 67 67 65 64 66 67 62 62 61 59 62 63 62
43 45 51 50 58 59 54 53 61 62 64 62 63 65 65 64 66 69 69 71 71 70 70 69 68 67 67 66 66 65 64 65 66 67 66 68 66 66 64 63 62 61 60 60 59 61 62 63 60
53 50 49 56 60 55 53 55 60 63 60 60 61 63 65 66 68 68 68 69 69 70 70 69 67 68 68 65 62 62 62 63 64 65 67 69 66 65 63 61 61 61 60 60 61 62 62 62 58
53 51 50 53 58 53 53 54 59 62 63 63 62 62 64 65 67 68 66 67 68 69 70 70 69 68 68 68 66 63 63 63 64 65 65 66 65 64 63 61 61 61 60 61 61 61 60 60 57
51 50 49 50 54 55 49 47 53 59 62 64 64 65 65 65 65 65 66 66 68 69 70 70 70 69 69 69 67 65 64 63 63 63 63 64 65 64 63 62 62 62 61 61 60 61 60 58 54
46 52 51 50 48 43 48 35 49 56 59 62 63 61 62 64 65 67 67 67 68 69 70 71 71 70 70 70 68 66 65 63 65 65 64 64 64 64 64 63 62 62 62 62 61 60 60 60 54
48 53 49 49 44 42 44 38 44 54 53 58 63 63 63 64 64 66 67 69 70 69 69 70 70 70 71 70 69 67 65 66 66 64 63 64 64 64 63 63 62 61 61 60 59 57 58 59 54
52 47 45 41 42 34 42 41 41 49 55 57 62 64 65 65 64 65 65 66 67 67 67 68 68 69 70 70 69 68 66 65 64 64 64 63 61 60 60 59 61 60 58 57 56 56 57 53 52
49 45 32 32 32 32 43 39 45 55 58 57 59 61 63 65 64 63 63 61 64 64 65 66 67 68 69 69 69 68 67 66 64 65 65 61 59 57 58 58 56 55 55 55 55 54 52 49 48
46 45 33 27 27 31 35 33 45 58 59 59 60 61 60 59 62 62 63 61 61 62 63 64 65 66 68 68 68 68 68 67 67 67 66 63 60 59 58 57 56 55 53 53 52 50 49 46 44
41 39 46 35 25 28 36 43 52 56 57 56 58 58 58 59 61 56 59 61 60 60 60 61 61 63 64 67 68 67 67 67 67 66 65 65 62 58 55 55 54 53 51 51 50 46 44 44 42
46 49 37 36 24 24 34 36 42 48 53 57 57 57 57 57 57 58 58 58 58 58 58 59 59 60 61 62 65 66 66 66 67 65 64 64 61 54 52 51 51 51 50 48 46 44 42 42 40
42 41 44 43 38 29 27 36 48 53 56 57 55 56 56 57 56 56 56 56 57 56 55 55 55 56 57 59 62 61 62 62 61 64 62 61 54 52 49 49 49 49 48 48 45 42 42 40 39
49 44 46 38 33 36 33 34 54 55 55 56 54 56 55 56 54 55 55 54 53 53 52 52 53 54 55 56 57 57 58 57 58 59 56 53 51 50 49 48 49 49 47 46 44 43 42 40 38

GFSSGP_sfc_temp_117.txt.gz
Temp
72 75 72 70 58 54 50 54 61 62 61 64 67 67 61 58 58 53 70 73 73 72 73 74 74 75 75 75 75 75 76 76 77 77 77 76 76 76 76 76 76 76 75 75 75 74 73 73 73
71 77 73 64 52 46 49 54 58 61 65 67 68 64 61 55 63 65 69 73 73 73 73 73 72 74 75 75 75 75 76 76 77 77 76 76 76 76 76 76 76 75 75 75 75 74 73 73 73
75 76 64 60 52 48 51 55 59 63 68 67 64 66 62 58 63 66 73 74 73 73 73 72 72 74 75 75 75 75 76 76 76 76 76 76 75 75 75 75 76 75 75 74 74 73 73 72 72
72 68 65 54 54 58 58 59 63 61 67 70 64 57 62 66 65 70 77 76 73 72 72 71 73 74 74 75 75 75 76 76 76 75 75 75 75 74 74 74 75 74 74 73 73 72 72 72 72
69 63 55 54 55 60 62 65 64 62 63 64 66 58 58 65 70 75 76 75 70 68 69 71 72 73 74 74 75 75 75 75 75 75 74 74 74 74 73 74 74 73 73 72 72 72 71 71 71
64 62 51 48 54 60 61 66 65 64 64 64 62 58 56 66 72 74 75 73 72 69 69 70 68 70 72 73 73 74 74 74 74 74 74 74 74 73 73 73 73 73 72 72 71 71 71 70 70
59 59 54 50 54 57 62 67 61 64 63 63 68 55 57 65 72 73 72 73 72 69 68 67 68 68 67 69 70 71 72 72 73 73 72 71 71 72 71 71 72 72 71 71 70 70 70 70 70
63 58 55 52 53 54 61 63 64 65 59 66 66 55 55 62 72 73 72 71 71 69 68 66 66 67 66 66 65 67 69 69 69 69 68 67 68 68 68 67 70 71 70 70 69 69 69 69 69
64 53 52 56 55 57 63 60 63 64 64 64 64 62 64 66 70 70 68 67 68 69 67 67 66 66 66 65 63 64 66 66 66 65 65 64 64 64 64 65 68 69 69 69 69 69 68 67 66
61 50 55 63 59 60 65 62 63 61 59 57 57 61 65 64 65 65 65 64 66 65 65 67 66 66 66 70 64 63 65 64 64 64 64 64 63 62 64 62 64 66 66 68 69 69 67 64 62
58 52 63 63 65 66 63 61 65 61 56 60 57 58 61 61 64 64 64 66 65 63 68 66 68 68 65 65 63 62 62 62 63 63 63 63 62 60 59 58 59 59 61 61 63 62 63 64 63
53 63 62 63 64 64 63 65 61 61 61 67 63 62 62 63 65 65 65 64 63 64 64 66 67 69 66 66 62 61 62 62 62 63 64 62 59 59 58 58 59 59 60 60 60 61 63 63 64
55 59 64 63 63 63 65 61 61 60 63 64 64 63 61 62 67 68 68 65 64 62 63 64 66 67 67 65 64 62 61 62 63 63 64 63 61 60 60 60 60 60 61 61 61 61 62 62 64
62 61 63 63 62 60 61 59 62 62 64 62 62 59 59 61 63 66 66 65 65 65 63 64 65 67 67 65 64 64 63 63 62 62 63 64 62 62 61 61 61 61 62 62 62 62 61 61 65
62 54 60 60 58 58 60 56 59 66 64 61 59 58 58 59 63 64 68 68 67 67 66 64 64 66 67 66 65 63 64 64 62 62 64 64 64 62 62 61 61 64 62 62 62 61 61 61 66
51 52 49 57 58 59 59 49 59 64 63 60 58 56 58 60 63 65 66 72 71 67 66 65 68 64 66 68 64 64 63 63 63 62 63 65 65 64 61 61 61 65 62 61 60 59 59 62 64
48 43 49 54 60 57 55 48 59 62 62 60 58 57 59 59 60 62 66 66 68 67 66 65 65 63 64 67 65 64 64 62 63 63 64 64 64 65 63 61 62 66 61 60 60 58 58 62 62
39 45 49 50 54 54 50 50 58 58 60 60 59 58 60 59 60 64 66 67 70 68 67 66 66 65 63 63 62 62 61 61 62 62 62 64 64 64 62 61 61 62 59 58 58 58 59 62 61
48 46 46 50 56 52 53 50 55 59 57 56 57 58 59 60 64 65 66 67 64 67 65 65 64 65 64 62 60 61 61 61 60 61 63 64 64 63 61 60 60 59 59 59 58 59 60 61 60
49 45 47 53 56 54 50 50 54 57 58 58 59 59 58 60 60 64 64 65 64 66 67 65 65 64 65 66 64 61 59 61 64 62 64 64 64 63 61 60 59 59 57 58 58 59 59 59 58
46 46 49 50 53 54 45 44 49 56 57 60 61 61 61 60 61 63 63 64 65 64 66 66 65 65 65 66 64 60 60 60 60 61 63 64 65 63 62 61 60 60 59 58 58 58 58 56 56
42 51 51 49 47 39 46 33 44 51 53 57 59 57 60 60 61 64 64 64 65 65 66 68 67 66 66 66 64 64 63 62 65 65 64 63 64 63 62 62 62 61 60 59 60 61 60 59 54
45 51 49 47 41 38 39 36 41 48 49 53 59 58 59 61 61 60 63 64 65 67 66 67 67 67 67 66 66 64 63 64 65 64 62 63 62 62 62 62 61 61 60 61 59 58 59 59 56
50 47 45 44 42 35 39 39 37 45 53 55 57 61 63 61 60 62 64 65 64 66 66 63 65 66 67 66 66 64 63 63 61 61 61 62 62 62 61 61 61 61 60 60 59 59 58 56 55
49 46 33 32 32 31 40 37 45 49 54 55 57 59 59 58 59 62 59 58 60 60 63 64 64 65 66 66 66 66 65 64 62 62 62 61 61 59 61 60 60 59 59 57 56 55 56 55 53
46 45 31 24 28 28 34 32 42 55 60 57 59 60 57 59 58 57 60 59 60 61 62 62 62 64 63 65 66 66 66 65 65 64 64 63 62 62 62 60 61 59 57 56 55 51 50 49 48
42 42 44 32 22 26 32 39 49 52 54 55 56 55 56 57 57 54 56 56 56 56 59 61 62 64 63 65 66 65 66 65 64 64 64 63 62 61 56 58 59 57 55 55 52 51 47 45 43
46 49 38 33 23 22 30 32 39 45 50 53 55 55 53 53 54 55 55 55 55 55 56 58 60 62 63 64 65 64 65 65 66 63 63 63 62 59 57 56 57 55 54 52 51 47 45 44 42
42 42 40 41 34 28 25 32 45 50 54 52 52 54 53 52 52 53 53 53 54 53 52 53 54 56 57 58 62 62 63 63 63 64 63 63 62 58 57 56 54 52 51 50 49 46 42 44 42
48 45 47 38 33 34 32 34 50 50 52 51 50 52 51 52 52 53 53 52 51 51 50 50 50 50 51 53 55 56 57 57 60 62 63 60 58 56 56 53 51 51 50 48 48 45 44 44 41